Time,TemperatureF,DewpointF,PressureIn,WindDirection,WindDirectionDegrees,WindSpeedMPH,WindSpeedGustMPH,Humidity,HourlyPrecipIn,Conditions,Clouds,dailyrainin,SoftwareType,DateUTC
2013-06-02 00:00:00,68.8,67.9,29.78,SE,143,0.0,2.0,97,0.04,,,0.00,Wunderground v.1.15,2013-06-02 04:00:00,
2013-06-02 00:01:00,68.8,67.9,29.78,SE,143,0.0,2.0,97,0.04,,,0.00,Wunderground v.1.15,2013-06-02 04:01:00,
2013-06-02 00:02:00,68.8,67.9,29.78,SE,143,0.0,2.0,97,0.04,,,0.00,Wunderground v.1.15,2013-06-02 04:02:00,
2013-06-02 00:03:00,68.8,67.9,29.78,SE,143,0.0,2.0,97,0.00,,,0.00,Wunderground v.1.15,2013-06-02 04:03:00,
2013-06-02 00:08:00,68.8,67.9,29.78,SE,143,0.0,2.0,97,0.00,,,0.00,Wunderground v.1.15,2013-06-02 04:08:00,
2013-06-02 00:09:00,68.8,67.9,29.78,SE,143,0.0,2.0,97,0.00,,,0.00,Wunderground v.1.15,2013-06-02 04:09:00,
2013-06-02 00:10:00,68.8,67.9,29.78,SE,143,0.0,2.0,97,0.00,,,0.00,Wunderground v.1.15,2013-06-02 04:10:00,
2013-06-02 00:11:00,68.8,67.9,29.78,SE,143,0.0,2.0,97,0.00,,,0.00,Wunderground v.1.15,2013-06-02 04:11:00,
2013-06-02 00:15:00,68.8,67.9,29.78,SE,143,0.0,2.0,97,0.00,,,0.00,Wunderground v.1.15,2013-06-02 04:15:00,
2013-06-02 00:17:00,68.8,67.9,29.78,SE,143,0.0,2.0,97,0.00,,,0.00,Wunderground v.1.15,2013-06-02 04:17:00,
2013-06-02 00:19:00,68.8,67.9,29.78,SE,143,0.0,2.0,97,0.00,,,0.00,Wunderground v.1.15,2013-06-02 04:19:00,
2013-06-02 00:20:00,68.8,67.9,29.78,SE,143,0.0,2.0,97,0.00,,,0.00,Wunderground v.1.15,2013-06-02 04:20:00,
2013-06-02 00:21:00,68.8,67.9,29.78,SE,143,0.0,2.0,97,0.00,,,0.00,Wunderground v.1.15,2013-06-02 04:21:00,
2013-06-02 00:22:00,68.8,67.9,29.78,SE,143,0.0,2.0,97,0.00,,,0.00,Wunderground v.1.15,2013-06-02 04:22:00,
2013-06-02 00:25:00,68.8,67.9,29.77,SSE,165,0.0,2.0,97,0.00,,,0.00,Wunderground v.1.15,2013-06-02 04:25:00,
2013-06-02 00:27:00,68.8,67.9,29.77,SSE,165,0.0,2.0,97,0.00,,,0.00,Wunderground v.1.15,2013-06-02 04:27:00,
2013-06-02 00:28:00,68.8,67.9,29.77,SSE,165,0.0,2.0,97,0.00,,,0.00,Wunderground v.1.15,2013-06-02 04:28:00,
2013-06-02 00:30:00,68.9,68.0,29.77,SW,229,0.0,2.0,97,0.00,,,0.00,Wunderground v.1.15,2013-06-02 04:30:00,
2013-06-02 00:32:00,68.9,68.0,29.77,SW,228,0.0,2.0,97,0.00,,,0.01,Wunderground v.1.15,2013-06-02 04:32:00,
2013-06-02 00:33:00,68.9,68.0,29.77,SW,228,0.0,2.0,97,0.00,,,0.01,Wunderground v.1.15,2013-06-02 04:33:00,
2013-06-02 00:34:00,68.9,68.0,29.77,SW,228,0.0,2.0,97,0.00,,,0.01,Wunderground v.1.15,2013-06-02 04:34:00,
2013-06-02 00:37:00,68.9,68.0,29.77,SW,229,0.0,2.0,97,0.00,,,0.01,Wunderground v.1.15,2013-06-02 04:37:00,
2013-06-02 00:40:00,69.0,68.1,29.77,SSE,167,0.0,2.0,97,0.00,,,0.01,Wunderground v.1.15,2013-06-02 04:40:00,
2013-06-02 00:42:00,68.9,68.0,29.77,SSE,167,0.0,2.0,97,0.00,,,0.01,Wunderground v.1.15,2013-06-02 04:42:00,
2013-06-02 00:43:00,69.0,68.1,29.77,SSE,167,0.0,2.0,97,0.00,,,0.01,Wunderground v.1.15,2013-06-02 04:43:00,
2013-06-02 00:48:00,69.0,68.1,29.77,SSE,167,0.0,2.0,97,0.00,,,0.01,Wunderground v.1.15,2013-06-02 04:48:00,
2013-06-02 00:49:00,68.9,68.0,29.77,SSE,167,0.0,2.0,97,0.00,,,0.01,Wunderground v.1.15,2013-06-02 04:49:00,
2013-06-02 00:50:00,69.0,68.1,29.77,SSE,167,0.0,2.0,97,0.00,,,0.01,Wunderground v.1.15,2013-06-02 04:50:00,
2013-06-02 00:51:00,68.9,68.0,29.77,SSE,167,0.0,2.0,97,0.00,,,0.01,Wunderground v.1.15,2013-06-02 04:51:00,
2013-06-02 00:54:00,68.9,68.0,29.77,SSE,168,0.0,2.0,97,0.00,,,0.01,Wunderground v.1.15,2013-06-02 04:54:00,
2013-06-02 00:56:00,68.9,68.0,29.77,SSE,167,0.0,2.0,97,0.00,,,0.01,Wunderground v.1.15,2013-06-02 04:56:00,
2013-06-02 00:57:00,68.9,68.0,29.77,SSE,167,0.0,2.0,97,0.00,,,0.01,Wunderground v.1.15,2013-06-02 04:57:00,
2013-06-02 01:00:00,68.9,68.0,29.77,SSE,167,0.0,2.0,97,0.00,,,0.01,Wunderground v.1.15,2013-06-02 05:00:00,
2013-06-02 01:01:00,68.9,68.0,29.77,SSE,167,0.0,2.0,97,0.00,,,0.01,Wunderground v.1.15,2013-06-02 05:01:00,
2013-06-02 01:02:00,68.9,68.0,29.76,SSE,167,0.0,2.0,97,0.00,,,0.01,Wunderground v.1.15,2013-06-02 05:02:00,
2013-06-02 01:03:00,68.9,68.0,29.77,SSE,167,0.0,2.0,97,0.00,,,0.01,Wunderground v.1.15,2013-06-02 05:03:00,
2013-06-02 01:04:00,68.9,68.0,29.77,SSE,167,0.0,2.0,97,0.00,,,0.01,Wunderground v.1.15,2013-06-02 05:04:00,
2013-06-02 01:10:00,69.0,68.1,29.77,WSW,255,0.0,2.0,97,0.00,,,0.01,Wunderground v.1.15,2013-06-02 05:10:00,
2013-06-02 01:11:00,69.0,68.1,29.77,WSW,255,0.0,2.0,97,0.00,,,0.01,Wunderground v.1.15,2013-06-02 05:11:00,
2013-06-02 01:12:00,69.1,68.2,29.76,WSW,255,0.0,2.0,97,0.00,,,0.01,Wunderground v.1.15,2013-06-02 05:12:00,
2013-06-02 01:13:00,69.1,68.2,29.76,WSW,255,0.0,2.0,97,0.00,,,0.01,Wunderground v.1.15,2013-06-02 05:13:00,
2013-06-02 01:17:00,69.1,68.2,29.78,West,267,0.0,2.0,97,0.00,,,0.01,Wunderground v.1.15,2013-06-02 05:17:00,
2013-06-02 01:18:00,69.1,68.2,29.79,West,269,0.0,2.0,97,0.00,,,0.01,Wunderground v.1.15,2013-06-02 05:18:00,
2013-06-02 01:19:00,69.1,68.2,29.78,WNW,291,0.0,2.0,97,0.00,,,0.01,Wunderground v.1.15,2013-06-02 05:19:00,
2013-06-02 01:20:00,69.2,68.3,29.78,ENE,76,1.0,2.0,97,0.00,,,0.01,Wunderground v.1.15,2013-06-02 05:20:00,
2013-06-02 01:23:00,69.2,68.3,29.75,ESE,105,1.0,3.0,97,0.00,,,0.01,Wunderground v.1.15,2013-06-02 05:23:00,
2013-06-02 01:24:00,69.1,68.2,29.75,ESE,105,1.0,3.0,97,0.00,,,0.01,Wunderground v.1.15,2013-06-02 05:24:00,
2013-06-02 01:27:00,69.1,68.2,29.76,South,190,1.0,3.0,97,0.00,,,0.01,Wunderground v.1.15,2013-06-02 05:27:00,
2013-06-02 01:28:00,69.1,68.2,29.76,South,190,1.0,3.0,97,0.00,,,0.01,Wunderground v.1.15,2013-06-02 05:28:00,
2013-06-02 01:29:00,69.1,68.2,29.76,South,190,1.0,3.0,97,0.00,,,0.01,Wunderground v.1.15,2013-06-02 05:29:00,
2013-06-02 01:30:00,69.1,68.2,29.77,SW,219,1.0,1.0,97,0.00,,,0.01,Wunderground v.1.15,2013-06-02 05:30:00,
2013-06-02 01:33:00,69.2,68.3,29.76,SW,232,0.0,2.0,97,0.00,,,0.02,Wunderground v.1.15,2013-06-02 05:33:00,
2013-06-02 01:34:00,69.2,68.3,29.76,SW,232,0.0,2.0,97,0.20,,,0.03,Wunderground v.1.15,2013-06-02 05:34:00,
2013-06-02 01:35:00,69.1,68.2,29.76,SW,232,0.0,2.0,97,0.20,,,0.03,Wunderground v.1.15,2013-06-02 05:35:00,
2013-06-02 01:38:00,69.1,68.2,29.76,SW,232,0.0,2.0,97,0.14,,,0.03,Wunderground v.1.15,2013-06-02 05:38:00,
2013-06-02 01:40:00,69.1,68.2,29.76,SW,232,0.0,2.0,97,0.14,,,0.04,Wunderground v.1.15,2013-06-02 05:40:00,
2013-06-02 01:43:00,69.1,68.2,29.75,SE,141,0.0,2.0,97,0.12,,,0.04,Wunderground v.1.15,2013-06-02 05:43:00,
2013-06-02 01:44:00,69.1,68.2,29.75,SE,141,0.0,2.0,97,0.11,,,0.05,Wunderground v.1.15,2013-06-02 05:44:00,
2013-06-02 01:46:00,69.1,68.2,29.75,SE,134,0.0,2.0,97,0.11,,,0.05,Wunderground v.1.15,2013-06-02 05:46:00,
2013-06-02 01:49:00,69.1,68.2,29.75,SE,134,0.0,2.0,97,0.11,,,0.05,Wunderground v.1.15,2013-06-02 05:49:00,
2013-06-02 01:53:00,69.1,68.2,29.75,SE,134,0.0,2.0,97,0.06,,,0.05,Wunderground v.1.15,2013-06-02 05:53:00,
2013-06-02 01:54:00,69.1,68.2,29.75,SE,134,0.0,2.0,97,0.06,,,0.05,Wunderground v.1.15,2013-06-02 05:54:00,
2013-06-02 01:56:00,69.1,68.2,29.74,SE,132,0.0,2.0,97,0.05,,,0.05,Wunderground v.1.15,2013-06-02 05:56:00,
2013-06-02 01:57:00,69.1,68.2,29.75,SE,132,0.0,2.0,97,0.04,,,0.05,Wunderground v.1.15,2013-06-02 05:57:00,
2013-06-02 01:58:00,69.1,68.2,29.74,SE,132,0.0,2.0,97,0.04,,,0.05,Wunderground v.1.15,2013-06-02 05:58:00,
2013-06-02 02:01:00,69.0,68.1,29.74,SE,124,0.0,2.0,97,0.00,,,0.05,Wunderground v.1.15,2013-06-02 06:01:00,
2013-06-02 02:03:00,68.9,68.0,29.74,South,187,0.0,2.0,97,0.00,,,0.05,Wunderground v.1.15,2013-06-02 06:03:00,
2013-06-02 02:04:00,68.8,67.9,29.74,SE,142,0.0,2.0,97,0.00,,,0.05,Wunderground v.1.15,2013-06-02 06:04:00,
2013-06-02 02:05:00,68.8,67.9,29.74,SE,141,1.0,2.0,97,0.00,,,0.05,Wunderground v.1.15,2013-06-02 06:05:00,
2013-06-02 02:09:00,68.6,67.7,29.74,ESE,116,1.0,3.0,97,0.00,,,0.05,Wunderground v.1.15,2013-06-02 06:09:00,
2013-06-02 02:10:00,68.6,67.7,29.73,SSE,164,1.0,1.0,97,0.00,,,0.05,Wunderground v.1.15,2013-06-02 06:10:00,
2013-06-02 02:11:00,68.6,67.7,29.73,East,87,1.0,2.0,97,0.00,,,0.05,Wunderground v.1.15,2013-06-02 06:11:00,
2013-06-02 02:12:00,68.5,67.6,29.73,WNW,287,1.0,2.0,97,0.00,,,0.05,Wunderground v.1.15,2013-06-02 06:12:00,
2013-06-02 02:14:00,68.6,67.7,29.75,West,274,1.0,3.0,97,0.00,,,0.05,Wunderground v.1.15,2013-06-02 06:14:00,
2013-06-02 02:15:00,68.7,67.8,29.76,West,271,1.0,3.0,97,0.00,,,0.05,Wunderground v.1.15,2013-06-02 06:15:00,
2013-06-02 02:18:00,68.8,67.9,29.76,NNE,13,2.0,3.0,97,0.00,,,0.05,Wunderground v.1.15,2013-06-02 06:18:00,
2013-06-02 02:19:00,68.8,67.9,29.75,ESE,103,2.0,3.0,97,0.00,,,0.05,Wunderground v.1.15,2013-06-02 06:19:00,
2013-06-02 02:22:00,68.8,67.9,29.73,East,82,2.0,2.0,97,0.00,,,0.05,Wunderground v.1.15,2013-06-02 06:22:00,
2013-06-02 02:24:00,68.8,67.9,29.74,WSW,257,2.0,2.0,97,0.00,,,0.05,Wunderground v.1.15,2013-06-02 06:24:00,
2013-06-02 02:27:00,68.8,67.9,29.75,WSW,240,1.0,2.0,97,0.00,,,0.05,Wunderground v.1.15,2013-06-02 06:27:00,
2013-06-02 02:28:00,68.8,67.9,29.75,WSW,240,1.0,2.0,97,0.00,,,0.05,Wunderground v.1.15,2013-06-02 06:28:00,
2013-06-02 02:29:00,68.8,67.9,29.75,East,89,1.0,2.0,97,0.00,,,0.05,Wunderground v.1.15,2013-06-02 06:29:00,
2013-06-02 02:33:00,68.8,67.9,29.75,East,82,1.0,2.0,97,0.00,,,0.05,Wunderground v.1.15,2013-06-02 06:33:00,
2013-06-02 02:35:00,68.8,67.9,29.75,West,271,1.0,2.0,97,0.00,,,0.05,Wunderground v.1.15,2013-06-02 06:35:00,
2013-06-02 02:36:00,68.9,68.0,29.75,West,259,1.0,2.0,97,0.00,,,0.05,Wunderground v.1.15,2013-06-02 06:36:00,
2013-06-02 02:37:00,68.9,68.0,29.76,West,260,1.0,2.0,97,0.00,,,0.05,Wunderground v.1.15,2013-06-02 06:37:00,
2013-06-02 02:38:00,68.8,67.9,29.76,West,260,1.0,2.0,97,0.00,,,0.05,Wunderground v.1.15,2013-06-02 06:38:00,
2013-06-02 02:39:00,68.8,67.9,29.75,West,260,1.0,2.0,97,0.00,,,0.05,Wunderground v.1.15,2013-06-02 06:39:00,
2013-06-02 02:41:00,68.8,67.9,29.75,West,259,1.0,2.0,97,0.00,,,0.05,Wunderground v.1.15,2013-06-02 06:41:00,
2013-06-02 02:42:00,68.8,67.9,29.75,West,260,1.0,2.0,97,0.00,,,0.05,Wunderground v.1.15,2013-06-02 06:42:00,
2013-06-02 02:44:00,68.8,67.9,29.74,SSW,204,1.0,2.0,97,0.00,,,0.06,Wunderground v.1.15,2013-06-02 06:44:00,
2013-06-02 02:45:00,68.7,67.8,29.74,South,170,0.0,2.0,97,0.00,,,0.06,Wunderground v.1.15,2013-06-02 06:45:00,
2013-06-02 02:46:00,68.7,67.8,29.74,East,88,0.0,2.0,97,0.00,,,0.06,Wunderground v.1.15,2013-06-02 06:46:00,
2013-06-02 02:50:00,68.7,67.8,29.73,East,81,1.0,1.0,97,0.00,,,0.06,Wunderground v.1.15,2013-06-02 06:50:00,
2013-06-02 02:51:00,68.6,67.7,29.73,East,81,1.0,2.0,97,0.00,,,0.06,Wunderground v.1.15,2013-06-02 06:51:00,
2013-06-02 02:53:00,68.6,67.7,29.72,East,80,1.0,2.0,97,0.00,,,0.06,Wunderground v.1.15,2013-06-02 06:53:00,
2013-06-02 02:54:00,68.6,67.7,29.72,East,81,1.0,2.0,97,0.00,,,0.06,Wunderground v.1.15,2013-06-02 06:54:00,
2013-06-02 02:55:00,68.6,67.7,29.72,East,81,1.0,2.0,97,0.00,,,0.06,Wunderground v.1.15,2013-06-02 06:55:00,
2013-06-02 02:57:00,68.6,67.7,29.73,WNW,289,1.0,2.0,97,0.00,,,0.06,Wunderground v.1.15,2013-06-02 06:57:00,
2013-06-02 03:00:00,68.7,67.8,29.73,WNW,283,0.0,2.0,97,0.00,,,0.06,Wunderground v.1.15,2013-06-02 07:00:00,
2013-06-02 03:01:00,68.7,67.8,29.73,WNW,283,0.0,2.0,97,0.00,,,0.06,Wunderground v.1.15,2013-06-02 07:01:00,
2013-06-02 03:02:00,68.6,67.7,29.73,East,100,0.0,2.0,97,0.00,,,0.06,Wunderground v.1.15,2013-06-02 07:02:00,
2013-06-02 03:03:00,68.6,67.7,29.72,East,98,0.0,2.0,97,2.03,,,0.09,Wunderground v.1.15,2013-06-02 07:03:00,
2013-06-02 03:05:00,68.6,67.7,29.72,East,98,0.0,2.0,97,0.52,,,0.11,Wunderground v.1.15,2013-06-02 07:05:00,
2013-06-02 03:06:00,68.6,67.7,29.72,East,98,0.0,2.0,97,0.39,,,0.11,Wunderground v.1.15,2013-06-02 07:06:00,
2013-06-02 03:07:00,68.6,67.7,29.72,East,87,0.0,2.0,97,0.23,,,0.11,Wunderground v.1.15,2013-06-02 07:07:00,
2013-06-02 03:10:00,68.6,67.7,29.71,ESE,117,1.0,2.0,97,0.11,,,0.11,Wunderground v.1.15,2013-06-02 07:10:00,
2013-06-02 03:11:00,68.6,67.7,29.71,East,90,1.0,2.0,97,0.09,,,0.11,Wunderground v.1.15,2013-06-02 07:11:00,
2013-06-02 03:13:00,68.6,67.7,29.70,ESE,113,1.0,3.0,97,0.07,,,0.11,Wunderground v.1.15,2013-06-02 07:13:00,
2013-06-02 03:16:00,68.5,67.6,29.70,South,190,1.0,3.0,97,0.05,,,0.11,Wunderground v.1.15,2013-06-02 07:16:00,
2013-06-02 03:18:00,68.5,67.6,29.69,East,84,1.0,3.0,97,0.04,,,0.11,Wunderground v.1.15,2013-06-02 07:18:00,
2013-06-02 03:19:00,68.5,67.6,29.69,ENE,70,1.0,3.0,97,0.04,,,0.11,Wunderground v.1.15,2013-06-02 07:19:00,
2013-06-02 03:23:00,68.5,67.6,29.69,East,100,2.0,4.0,97,0.00,,,0.11,Wunderground v.1.15,2013-06-02 07:23:00,
2013-06-02 03:25:00,68.5,67.6,29.69,SSW,210,2.0,4.0,97,0.00,,,0.11,Wunderground v.1.15,2013-06-02 07:25:00,
2013-06-02 03:26:00,68.6,67.7,29.70,WNW,284,2.0,4.0,97,0.00,,,0.11,Wunderground v.1.15,2013-06-02 07:26:00,
2013-06-02 03:27:00,68.6,68.0,29.71,WNW,286,2.0,4.0,98,0.00,,,0.11,Wunderground v.1.15,2013-06-02 07:27:00,
2013-06-02 03:28:00,68.6,68.0,29.72,WNW,294,2.0,4.0,98,0.00,,,0.11,Wunderground v.1.15,2013-06-02 07:28:00,
2013-06-02 03:31:00,68.7,68.1,29.72,WNW,294,2.0,3.0,98,0.00,,,0.11,Wunderground v.1.15,2013-06-02 07:31:00,
2013-06-02 03:32:00,68.6,68.0,29.73,WSW,239,2.0,3.0,98,0.00,,,0.11,Wunderground v.1.15,2013-06-02 07:32:00,
2013-06-02 03:34:00,68.6,68.0,29.73,ESE,113,2.0,3.0,98,0.00,,,0.11,Wunderground v.1.15,2013-06-02 07:34:00,
2013-06-02 03:37:00,68.5,67.6,29.73,West,281,2.0,3.0,97,0.00,,,0.12,Wunderground v.1.15,2013-06-02 07:37:00,
2013-06-02 03:39:00,68.5,67.6,29.73,West,273,2.0,3.0,97,0.18,,,0.13,Wunderground v.1.15,2013-06-02 07:39:00,
2013-06-02 03:40:00,68.5,67.6,29.73,West,278,2.0,2.0,97,0.18,,,0.13,Wunderground v.1.15,2013-06-02 07:40:00,
2013-06-02 03:41:00,68.5,67.6,29.71,ENE,67,1.0,2.0,97,1.76,,,0.16,Wunderground v.1.15,2013-06-02 07:41:00,
2013-06-02 03:44:00,68.5,67.6,29.72,ENE,68,1.0,2.0,97,2.15,,,0.22,Wunderground v.1.15,2013-06-02 07:44:00,
2013-06-02 03:45:00,68.4,67.5,29.72,ENE,68,1.0,2.0,97,1.66,,,0.26,Wunderground v.1.15,2013-06-02 07:45:00,
2013-06-02 03:48:00,68.4,67.5,29.71,East,90,0.0,2.0,97,0.32,,,0.28,Wunderground v.1.15,2013-06-02 07:48:00,
2013-06-02 03:49:00,68.4,67.5,29.71,East,94,0.0,2.0,97,0.21,,,0.28,Wunderground v.1.15,2013-06-02 07:49:00,
2013-06-02 03:51:00,68.4,67.5,29.70,ESE,103,1.0,2.0,97,0.21,,,0.29,Wunderground v.1.15,2013-06-02 07:51:00,
2013-06-02 03:52:00,68.3,67.4,29.70,ESE,103,1.0,2.0,97,0.20,,,0.29,Wunderground v.1.15,2013-06-02 07:52:00,
2013-06-02 03:53:00,68.3,67.4,29.70,ESE,103,1.0,2.0,97,0.15,,,0.29,Wunderground v.1.15,2013-06-02 07:53:00,
2013-06-02 03:54:00,68.3,67.4,29.70,ESE,103,1.0,2.0,97,0.11,,,0.29,Wunderground v.1.15,2013-06-02 07:54:00,
2013-06-02 03:57:00,68.3,67.4,29.70,ESE,103,1.0,2.0,97,0.07,,,0.29,Wunderground v.1.15,2013-06-02 07:57:00,
2013-06-02 03:58:00,68.4,67.8,29.70,SSE,152,1.0,2.0,98,0.06,,,0.29,Wunderground v.1.15,2013-06-02 07:58:00,
2013-06-02 04:00:00,68.4,67.8,29.70,SSE,152,0.0,0.0,98,0.05,,,0.29,Wunderground v.1.15,2013-06-02 08:00:00,
2013-06-02 04:04:00,68.3,67.7,29.70,SSE,152,0.0,0.0,98,0.04,,,0.30,Wunderground v.1.15,2013-06-02 08:04:00,
2013-06-02 04:05:00,68.3,67.7,29.70,SSE,158,0.0,0.0,98,0.04,,,0.30,Wunderground v.1.15,2013-06-02 08:05:00,
2013-06-02 04:06:00,68.3,67.7,29.71,WSW,257,0.0,1.0,98,0.04,,,0.30,Wunderground v.1.15,2013-06-02 08:06:00,
2013-06-02 04:09:00,68.4,67.8,29.72,West,274,0.0,2.0,98,0.04,,,0.30,Wunderground v.1.15,2013-06-02 08:09:00,
2013-06-02 04:11:00,68.4,67.8,29.73,West,274,1.0,1.0,98,0.49,,,0.32,Wunderground v.1.15,2013-06-02 08:11:00,
2013-06-02 04:12:00,68.4,67.8,29.72,SE,127,1.0,1.0,98,0.79,,,0.34,Wunderground v.1.15,2013-06-02 08:12:00,
2013-06-02 04:15:00,68.4,67.8,29.71,East,96,1.0,2.0,98,0.37,,,0.35,Wunderground v.1.15,2013-06-02 08:15:00,
2013-06-02 04:16:00,68.3,67.7,29.71,East,96,1.0,2.0,98,0.20,,,0.35,Wunderground v.1.15,2013-06-02 08:16:00,
2013-06-02 04:17:00,68.3,67.7,29.71,East,96,1.0,2.0,98,0.15,,,0.35,Wunderground v.1.15,2013-06-02 08:17:00,
2013-06-02 04:19:00,68.3,67.7,29.71,East,96,1.0,2.0,98,0.11,,,0.35,Wunderground v.1.15,2013-06-02 08:19:00,
2013-06-02 04:21:00,68.3,67.7,29.70,East,96,0.0,0.0,98,0.08,,,0.36,Wunderground v.1.15,2013-06-02 08:21:00,
2013-06-02 04:23:00,68.3,67.7,29.70,East,96,0.0,0.0,98,0.08,,,0.36,Wunderground v.1.15,2013-06-02 08:23:00,
2013-06-02 04:24:00,68.3,67.7,29.70,East,96,0.0,1.0,98,0.08,,,0.36,Wunderground v.1.15,2013-06-02 08:24:00,
2013-06-02 04:25:00,68.3,67.7,29.69,East,96,0.0,1.0,98,0.08,,,0.36,Wunderground v.1.15,2013-06-02 08:25:00,
2013-06-02 04:28:00,68.3,67.7,29.69,ESE,121,0.0,1.0,98,0.08,,,0.36,Wunderground v.1.15,2013-06-02 08:28:00,
2013-06-02 04:29:00,68.2,67.6,29.70,ESE,122,0.0,1.0,98,0.07,,,0.36,Wunderground v.1.15,2013-06-02 08:29:00,
2013-06-02 04:30:00,68.2,67.6,29.70,SE,126,0.0,1.0,98,0.06,,,0.36,Wunderground v.1.15,2013-06-02 08:30:00,
2013-06-02 04:32:00,68.2,67.6,29.69,East,81,0.0,6.0,98,0.06,,,0.37,Wunderground v.1.15,2013-06-02 08:32:00,
2013-06-02 04:34:00,68.2,67.6,29.68,WNW,293,0.0,6.0,98,0.28,,,0.38,Wunderground v.1.15,2013-06-02 08:34:00,
2013-06-02 04:35:00,68.2,67.6,29.67,NNE,31,0.0,6.0,98,0.19,,,0.38,Wunderground v.1.15,2013-06-02 08:35:00,
2013-06-02 04:37:00,68.1,67.5,29.67,East,89,0.0,6.0,98,0.12,,,0.38,Wunderground v.1.15,2013-06-02 08:37:00,
2013-06-02 04:38:00,68.2,67.6,29.67,ENE,76,1.0,6.0,98,0.10,,,0.38,Wunderground v.1.15,2013-06-02 08:38:00,
2013-06-02 04:42:00,68.1,67.5,29.68,SSW,208,1.0,6.0,98,0.27,,,0.40,Wunderground v.1.15,2013-06-02 08:42:00,
2013-06-02 04:43:00,68.1,67.5,29.68,South,191,1.0,6.0,98,0.28,,,0.41,Wunderground v.1.15,2013-06-02 08:43:00,
2013-06-02 04:44:00,68.1,67.5,29.69,West,262,1.0,6.0,98,0.28,,,0.41,Wunderground v.1.15,2013-06-02 08:44:00,
2013-06-02 04:48:00,68.2,67.6,29.71,WSW,248,2.0,6.0,98,0.59,,,0.44,Wunderground v.1.15,2013-06-02 08:48:00,
2013-06-02 04:49:00,68.2,67.6,29.72,WNW,287,2.0,6.0,98,1.61,,,0.46,Wunderground v.1.15,2013-06-02 08:49:00,
2013-06-02 04:51:00,68.2,67.6,29.71,West,264,2.0,6.0,98,0.84,,,0.51,Wunderground v.1.15,2013-06-02 08:51:00,
2013-06-02 04:53:00,68.1,67.5,29.71,West,280,2.0,6.0,98,0.25,,,0.51,Wunderground v.1.15,2013-06-02 08:53:00,
2013-06-02 04:56:00,68.0,67.4,29.72,WSW,250,1.0,6.0,98,0.20,,,0.52,Wunderground v.1.15,2013-06-02 08:56:00,
2013-06-02 04:59:00,67.9,67.3,29.73,West,272,1.0,6.0,98,0.11,,,0.52,Wunderground v.1.15,2013-06-02 08:59:00,
2013-06-02 05:01:00,67.8,67.2,29.73,West,260,1.0,6.0,98,0.08,,,0.52,Wunderground v.1.15,2013-06-02 09:01:00,
2013-06-02 05:02:00,67.8,67.2,29.74,WSW,258,1.0,6.0,98,0.08,,,0.53,Wunderground v.1.15,2013-06-02 09:02:00,
2013-06-02 05:05:00,67.7,67.1,29.73,WSW,253,1.0,6.0,98,0.27,,,0.54,Wunderground v.1.15,2013-06-02 09:05:00,
2013-06-02 05:06:00,67.7,67.1,29.73,West,277,1.0,6.0,98,0.34,,,0.55,Wunderground v.1.15,2013-06-02 09:06:00,
2013-06-02 05:09:00,67.6,67.0,29.73,WSW,242,1.0,6.0,98,0.20,,,0.56,Wunderground v.1.15,2013-06-02 09:09:00,
2013-06-02 05:10:00,67.5,66.9,29.73,West,263,1.0,6.0,98,0.20,,,0.56,Wunderground v.1.15,2013-06-02 09:10:00,
2013-06-02 05:11:00,67.5,66.9,29.73,WSW,255,1.0,6.0,98,0.20,,,0.56,Wunderground v.1.15,2013-06-02 09:11:00,
2013-06-02 05:12:00,67.5,66.6,29.73,West,268,1.0,6.0,97,0.18,,,0.56,Wunderground v.1.15,2013-06-02 09:12:00,
2013-06-02 05:13:00,67.4,66.5,29.73,West,265,1.0,6.0,97,0.14,,,0.56,Wunderground v.1.15,2013-06-02 09:13:00,
2013-06-02 05:14:00,67.4,66.5,29.73,WSW,255,1.0,6.0,97,0.14,,,0.57,Wunderground v.1.15,2013-06-02 09:14:00,
2013-06-02 05:18:00,67.3,66.7,29.72,WSW,255,1.0,6.0,98,0.12,,,0.57,Wunderground v.1.15,2013-06-02 09:18:00,
2013-06-02 05:20:00,67.3,66.7,29.72,WSW,256,1.0,1.0,98,0.09,,,0.58,Wunderground v.1.15,2013-06-02 09:20:00,
2013-06-02 05:21:00,67.3,66.7,29.73,WSW,256,0.0,6.0,98,0.09,,,0.58,Wunderground v.1.15,2013-06-02 09:21:00,
2013-06-02 05:25:00,67.3,66.7,29.73,WSW,256,0.0,6.0,98,0.15,,,0.59,Wunderground v.1.15,2013-06-02 09:25:00,
2013-06-02 05:26:00,67.2,66.6,29.72,WSW,256,0.0,6.0,98,0.15,,,0.59,Wunderground v.1.15,2013-06-02 09:26:00,
2013-06-02 05:29:00,67.2,66.6,29.72,SW,226,0.0,6.0,98,0.15,,,0.60,Wunderground v.1.15,2013-06-02 09:29:00,
2013-06-02 05:30:00,67.2,66.6,29.72,SW,226,0.0,6.0,98,0.15,,,0.60,Wunderground v.1.15,2013-06-02 09:30:00,
2013-06-02 05:31:00,67.2,66.6,29.72,SW,226,0.0,6.0,98,0.15,,,0.60,Wunderground v.1.15,2013-06-02 09:31:00,
2013-06-02 05:32:00,67.1,66.5,29.72,SW,226,0.0,6.0,98,0.17,,,0.61,Wunderground v.1.15,2013-06-02 09:32:00,
2013-06-02 05:35:00,67.1,66.5,29.72,SW,226,0.0,6.0,98,0.18,,,0.62,Wunderground v.1.15,2013-06-02 09:35:00,
2013-06-02 05:37:00,67.1,66.5,29.72,SW,226,0.0,6.0,98,0.18,,,0.62,Wunderground v.1.15,2013-06-02 09:37:00,
2013-06-02 05:39:00,67.1,66.5,29.71,SW,225,0.0,6.0,98,0.14,,,0.62,Wunderground v.1.15,2013-06-02 09:39:00,
2013-06-02 05:40:00,67.1,66.5,29.71,SSE,166,0.0,6.0,98,0.12,,,0.63,Wunderground v.1.15,2013-06-02 09:40:00,
2013-06-02 05:41:00,67.1,66.5,29.71,SSE,167,0.0,6.0,98,0.12,,,0.63,Wunderground v.1.15,2013-06-02 09:41:00,
2013-06-02 05:43:00,67.0,66.4,29.72,SE,127,0.0,6.0,98,0.12,,,0.63,Wunderground v.1.15,2013-06-02 09:43:00,
2013-06-02 05:44:00,67.0,66.4,29.71,SE,146,0.0,6.0,98,0.12,,,0.63,Wunderground v.1.15,2013-06-02 09:44:00,
2013-06-02 05:46:00,66.9,66.3,29.71,SE,146,0.0,6.0,98,0.09,,,0.63,Wunderground v.1.15,2013-06-02 09:46:00,
2013-06-02 05:47:00,66.9,66.3,29.71,South,172,0.0,6.0,98,0.08,,,0.63,Wunderground v.1.15,2013-06-02 09:47:00,
2013-06-02 05:52:00,66.8,66.2,29.70,SSE,159,0.0,6.0,98,0.05,,,0.64,Wunderground v.1.15,2013-06-02 09:52:00,
2013-06-02 05:53:00,66.7,66.1,29.70,ESE,113,0.0,6.0,98,0.05,,,0.64,Wunderground v.1.15,2013-06-02 09:53:00,
2013-06-02 05:54:00,66.7,66.1,29.69,SSE,152,1.0,6.0,98,0.05,,,0.64,Wunderground v.1.15,2013-06-02 09:54:00,
2013-06-02 05:56:00,66.6,66.0,29.69,SSE,152,1.0,6.0,98,0.05,,,0.64,Wunderground v.1.15,2013-06-02 09:56:00,
2013-06-02 05:58:00,66.6,66.0,29.69,SSE,153,1.0,6.0,98,0.05,,,0.64,Wunderground v.1.15,2013-06-02 09:58:00,
2013-06-02 05:59:00,66.6,66.0,29.69,South,169,1.0,6.0,98,0.05,,,0.64,Wunderground v.1.15,2013-06-02 09:59:00,
2013-06-02 06:01:00,66.6,66.0,29.70,South,191,0.0,6.0,98,0.05,,,0.64,Wunderground v.1.15,2013-06-02 10:01:00,
2013-06-02 06:02:00,66.6,66.0,29.70,SSW,193,0.0,6.0,98,0.05,,,0.64,Wunderground v.1.15,2013-06-02 10:02:00,
2013-06-02 06:03:00,66.5,65.9,29.70,South,188,0.0,6.0,98,0.05,,,0.64,Wunderground v.1.15,2013-06-02 10:03:00,
2013-06-02 06:06:00,66.5,65.9,29.71,SSW,203,0.0,6.0,98,0.04,,,0.64,Wunderground v.1.15,2013-06-02 10:06:00,
2013-06-02 06:08:00,66.5,65.9,29.71,SSW,204,0.0,6.0,98,0.04,,,0.64,Wunderground v.1.15,2013-06-02 10:08:00,
2013-06-02 06:10:00,66.4,65.8,29.72,SSW,203,0.0,6.0,98,0.00,,,0.64,Wunderground v.1.15,2013-06-02 10:10:00,
2013-06-02 06:12:00,66.3,65.7,29.72,SW,228,0.0,6.0,98,0.00,,,0.64,Wunderground v.1.15,2013-06-02 10:12:00,
2013-06-02 06:15:00,66.3,65.7,29.72,WSW,238,0.0,6.0,98,0.00,,,0.64,Wunderground v.1.15,2013-06-02 10:15:00,
2013-06-02 06:17:00,66.2,65.6,29.71,WSW,238,1.0,6.0,98,0.00,,,0.64,Wunderground v.1.15,2013-06-02 10:17:00,
2013-06-02 06:18:00,66.2,65.6,29.72,WSW,239,1.0,6.0,98,0.00,,,0.64,Wunderground v.1.15,2013-06-02 10:18:00,
2013-06-02 06:21:00,66.1,65.5,29.71,WSW,238,0.0,6.0,98,0.00,,,0.64,Wunderground v.1.15,2013-06-02 10:21:00,
2013-06-02 06:22:00,66.1,65.5,29.71,SW,222,0.0,6.0,98,0.00,,,0.64,Wunderground v.1.15,2013-06-02 10:22:00,
2013-06-02 06:23:00,66.0,65.4,29.71,SSW,207,0.0,6.0,98,0.00,,,0.64,Wunderground v.1.15,2013-06-02 10:23:00,
2013-06-02 06:26:00,66.0,65.4,29.71,SW,226,0.0,6.0,98,0.00,,,0.64,Wunderground v.1.15,2013-06-02 10:26:00,
2013-06-02 06:28:00,66.0,65.4,29.72,WSW,246,0.0,6.0,98,0.00,,,0.64,Wunderground v.1.15,2013-06-02 10:28:00,
2013-06-02 06:29:00,66.0,65.4,29.72,SSW,195,0.0,6.0,98,0.00,,,0.64,Wunderground v.1.15,2013-06-02 10:29:00,
2013-06-02 06:32:00,66.0,65.4,29.72,SW,230,0.0,6.0,98,0.00,,,0.64,Wunderground v.1.15,2013-06-02 10:32:00,
2013-06-02 06:33:00,65.9,65.3,29.72,SW,231,0.0,6.0,98,0.00,,,0.64,Wunderground v.1.15,2013-06-02 10:33:00,
2013-06-02 06:35:00,65.9,65.3,29.72,SW,230,0.0,6.0,98,0.00,,,0.64,Wunderground v.1.15,2013-06-02 10:35:00,
2013-06-02 06:36:00,65.9,65.3,29.72,SW,231,0.0,6.0,98,0.00,,,0.64,Wunderground v.1.15,2013-06-02 10:36:00,
2013-06-02 06:38:00,65.9,65.3,29.72,SSW,212,0.0,6.0,98,0.00,,,0.64,Wunderground v.1.15,2013-06-02 10:38:00,
2013-06-02 06:40:00,65.9,65.3,29.72,South,173,0.0,6.0,98,0.00,,,0.64,Wunderground v.1.15,2013-06-02 10:40:00,
2013-06-02 06:41:00,65.9,65.3,29.72,SSW,201,0.0,6.0,98,0.00,,,0.64,Wunderground v.1.15,2013-06-02 10:41:00,
2013-06-02 06:45:00,65.9,65.3,29.72,WSW,252,0.0,6.0,98,0.00,,,0.64,Wunderground v.1.15,2013-06-02 10:45:00,
2013-06-02 06:46:00,65.9,65.3,29.72,WSW,252,0.0,6.0,98,0.00,,,0.64,Wunderground v.1.15,2013-06-02 10:46:00,
2013-06-02 06:49:00,65.9,65.3,29.72,SW,218,0.0,6.0,98,0.00,,,0.64,Wunderground v.1.15,2013-06-02 10:49:00,
2013-06-02 06:50:00,65.9,65.3,29.72,SW,218,0.0,6.0,98,0.00,,,0.64,Wunderground v.1.15,2013-06-02 10:50:00,
2013-06-02 06:51:00,65.9,65.3,29.73,SW,217,0.0,6.0,98,0.00,,,0.64,Wunderground v.1.15,2013-06-02 10:51:00,
2013-06-02 06:52:00,65.9,65.3,29.73,WSW,248,0.0,6.0,98,0.00,,,0.64,Wunderground v.1.15,2013-06-02 10:52:00,
2013-06-02 06:57:00,65.9,65.3,29.72,SE,139,0.0,6.0,98,0.00,,,0.64,Wunderground v.1.15,2013-06-02 10:57:00,
2013-06-02 06:59:00,65.9,65.3,29.72,SSW,201,0.0,6.0,98,0.00,,,0.64,Wunderground v.1.15,2013-06-02 10:59:00,
2013-06-02 07:02:00,65.9,65.3,29.71,WSW,241,0.0,6.0,98,0.00,,,0.64,Wunderground v.1.15,2013-06-02 11:02:00,
2013-06-02 07:03:00,65.9,65.3,29.72,WSW,239,0.0,6.0,98,0.00,,,0.64,Wunderground v.1.15,2013-06-02 11:03:00,
2013-06-02 07:06:00,66.0,65.4,29.72,SW,215,0.0,6.0,98,0.00,,,0.64,Wunderground v.1.15,2013-06-02 11:06:00,
2013-06-02 07:09:00,66.0,65.4,29.72,SSE,158,0.0,6.0,98,0.00,,,0.64,Wunderground v.1.15,2013-06-02 11:09:00,
2013-06-02 07:11:00,66.0,65.4,29.72,South,188,0.0,6.0,98,0.00,,,0.64,Wunderground v.1.15,2013-06-02 11:11:00,
2013-06-02 07:12:00,66.1,65.5,29.72,South,188,0.0,6.0,98,0.00,,,0.64,Wunderground v.1.15,2013-06-02 11:12:00,
2013-06-02 07:14:00,66.2,65.6,29.72,South,177,0.0,6.0,98,0.00,,,0.64,Wunderground v.1.15,2013-06-02 11:14:00,
2013-06-02 07:16:00,66.2,65.6,29.72,South,177,0.0,6.0,98,0.00,,,0.64,Wunderground v.1.15,2013-06-02 11:16:00,
2013-06-02 07:17:00,66.2,65.6,29.72,SW,219,0.0,6.0,98,0.00,,,0.64,Wunderground v.1.15,2013-06-02 11:17:00,
2013-06-02 07:18:00,66.3,65.7,29.72,SSE,166,0.0,6.0,98,0.00,,,0.64,Wunderground v.1.15,2013-06-02 11:18:00,
2013-06-02 07:20:00,66.4,65.8,29.72,SSW,197,0.0,6.0,98,0.00,,,0.64,Wunderground v.1.15,2013-06-02 11:20:00,
2013-06-02 07:23:00,66.4,65.8,29.72,SW,224,0.0,6.0,98,0.00,,,0.64,Wunderground v.1.15,2013-06-02 11:23:00,
2013-06-02 07:24:00,66.5,65.9,29.71,SSE,153,0.0,6.0,98,0.00,,,0.64,Wunderground v.1.15,2013-06-02 11:24:00,
2013-06-02 07:27:00,66.4,65.8,29.71,SSW,195,0.0,6.0,98,0.00,,,0.64,Wunderground v.1.15,2013-06-02 11:27:00,
2013-06-02 07:28:00,66.5,65.9,29.71,SSW,195,0.0,6.0,98,0.00,,,0.64,Wunderground v.1.15,2013-06-02 11:28:00,
2013-06-02 07:30:00,66.4,65.8,29.71,SSW,195,0.0,6.0,98,0.00,,,0.64,Wunderground v.1.15,2013-06-02 11:30:00,
2013-06-02 07:32:00,66.4,65.8,29.71,SSW,195,0.0,6.0,98,0.00,,,0.64,Wunderground v.1.15,2013-06-02 11:32:00,
2013-06-02 07:33:00,66.5,65.9,29.71,SSW,195,0.0,6.0,98,0.00,,,0.64,Wunderground v.1.15,2013-06-02 11:33:00,
2013-06-02 07:34:00,66.5,65.9,29.71,SSW,195,0.0,6.0,98,0.00,,,0.64,Wunderground v.1.15,2013-06-02 11:34:00,
2013-06-02 07:35:00,66.5,65.9,29.71,SSW,195,0.0,6.0,98,0.00,,,0.64,Wunderground v.1.15,2013-06-02 11:35:00,
2013-06-02 07:36:00,66.5,65.9,29.71,SSW,195,0.0,6.0,98,0.00,,,0.64,Wunderground v.1.15,2013-06-02 11:36:00,
2013-06-02 07:38:00,66.5,65.9,29.71,SSW,195,0.0,6.0,98,0.00,,,0.64,Wunderground v.1.15,2013-06-02 11:38:00,
2013-06-02 07:42:00,66.6,66.0,29.71,SSW,195,0.0,6.0,98,0.00,,,0.64,Wunderground v.1.15,2013-06-02 11:42:00,
2013-06-02 07:43:00,66.6,66.0,29.71,SSW,196,0.0,6.0,98,0.00,,,0.64,Wunderground v.1.15,2013-06-02 11:43:00,
2013-06-02 07:46:00,66.7,66.1,29.71,SW,217,0.0,6.0,98,0.00,,,0.64,Wunderground v.1.15,2013-06-02 11:46:00,
2013-06-02 07:48:00,66.7,66.1,29.71,SW,217,0.0,6.0,98,0.00,,,0.64,Wunderground v.1.15,2013-06-02 11:48:00,
2013-06-02 07:49:00,66.8,66.2,29.71,SW,217,0.0,6.0,98,0.00,,,0.64,Wunderground v.1.15,2013-06-02 11:49:00,
2013-06-02 07:50:00,66.8,66.2,29.71,SW,217,0.0,6.0,98,0.00,,,0.64,Wunderground v.1.15,2013-06-02 11:50:00,
2013-06-02 07:51:00,66.9,66.3,29.71,SW,217,0.0,6.0,98,0.00,,,0.64,Wunderground v.1.15,2013-06-02 11:51:00,
2013-06-02 07:55:00,67.2,66.6,29.71,West,262,0.0,6.0,98,0.00,,,0.64,Wunderground v.1.15,2013-06-02 11:55:00,
2013-06-02 07:56:00,67.2,66.6,29.71,West,262,0.0,6.0,98,0.00,,,0.64,Wunderground v.1.15,2013-06-02 11:56:00,
2013-06-02 07:59:00,67.2,66.3,29.71,SW,225,0.0,6.0,97,0.00,,,0.64,Wunderground v.1.15,2013-06-02 11:59:00,
2013-06-02 08:01:00,67.2,66.3,29.71,SW,214,0.0,6.0,97,0.00,,,0.64,Wunderground v.1.15,2013-06-02 12:01:00,
2013-06-02 08:04:00,67.2,66.3,29.71,SSE,166,0.0,6.0,97,0.00,,,0.64,Wunderground v.1.15,2013-06-02 12:04:00,
2013-06-02 08:06:00,67.2,66.3,29.70,SSW,212,0.0,6.0,97,0.00,,,0.64,Wunderground v.1.15,2013-06-02 12:06:00,
2013-06-02 08:07:00,67.2,66.3,29.70,SSW,212,0.0,6.0,97,0.00,,,0.64,Wunderground v.1.15,2013-06-02 12:07:00,
2013-06-02 08:08:00,67.3,66.4,29.70,SSW,212,0.0,6.0,97,0.00,,,0.64,Wunderground v.1.15,2013-06-02 12:08:00,
2013-06-02 08:12:00,67.3,66.4,29.71,SW,214,0.0,6.0,97,0.00,,,0.64,Wunderground v.1.15,2013-06-02 12:12:00,
2013-06-02 08:13:00,67.4,66.5,29.71,SW,214,0.0,6.0,97,0.00,,,0.64,Wunderground v.1.15,2013-06-02 12:13:00,
2013-06-02 08:14:00,67.3,66.4,29.71,WSW,253,0.0,6.0,97,0.00,,,0.64,Wunderground v.1.15,2013-06-02 12:14:00,
2013-06-02 08:15:00,67.4,66.5,29.70,ENE,76,0.0,6.0,97,0.00,,,0.64,Wunderground v.1.15,2013-06-02 12:15:00,
2013-06-02 08:20:00,67.5,66.6,29.70,SW,219,0.0,6.0,97,0.00,,,0.64,Wunderground v.1.15,2013-06-02 12:20:00,
2013-06-02 08:21:00,67.5,66.6,29.70,WSW,245,0.0,6.0,97,0.00,,,0.64,Wunderground v.1.15,2013-06-02 12:21:00,
2013-06-02 08:22:00,67.6,66.7,29.70,SW,229,0.0,6.0,97,0.00,,,0.64,Wunderground v.1.15,2013-06-02 12:22:00,
2013-06-02 08:26:00,67.6,66.7,29.70,SE,135,0.0,6.0,97,0.00,,,0.64,Wunderground v.1.15,2013-06-02 12:26:00,
2013-06-02 08:27:00,67.6,66.7,29.70,SW,225,0.0,6.0,97,0.00,,,0.64,Wunderground v.1.15,2013-06-02 12:27:00,
2013-06-02 08:30:00,67.7,66.8,29.70,South,191,0.0,6.0,97,0.00,,,0.64,Wunderground v.1.15,2013-06-02 12:30:00,
2013-06-02 08:31:00,67.8,66.9,29.70,SSW,204,0.0,6.0,97,0.00,,,0.64,Wunderground v.1.15,2013-06-02 12:31:00,
2013-06-02 08:33:00,67.8,66.9,29.70,SSW,193,0.0,6.0,97,0.00,,,0.64,Wunderground v.1.15,2013-06-02 12:33:00,
2013-06-02 08:37:00,67.9,66.7,29.70,SSW,194,0.0,6.0,96,0.00,,,0.64,Wunderground v.1.15,2013-06-02 12:37:00,
2013-06-02 08:39:00,68.0,66.8,29.70,WSW,255,0.0,6.0,96,0.00,,,0.64,Wunderground v.1.15,2013-06-02 12:39:00,
2013-06-02 08:40:00,68.0,66.8,29.70,WSW,253,0.0,6.0,96,0.00,,,0.64,Wunderground v.1.15,2013-06-02 12:40:00,
2013-06-02 08:41:00,68.0,66.8,29.70,SW,233,0.0,6.0,96,0.00,,,0.64,Wunderground v.1.15,2013-06-02 12:41:00,
2013-06-02 08:43:00,68.1,66.9,29.71,SSE,158,0.0,6.0,96,0.00,,,0.64,Wunderground v.1.15,2013-06-02 12:43:00,
2013-06-02 08:46:00,68.2,67.0,29.71,SSE,158,0.0,6.0,96,0.00,,,0.64,Wunderground v.1.15,2013-06-02 12:46:00,
2013-06-02 08:47:00,68.2,67.0,29.71,ENE,67,0.0,6.0,96,0.00,,,0.64,Wunderground v.1.15,2013-06-02 12:47:00,
2013-06-02 08:48:00,68.2,67.0,29.71,South,190,0.0,6.0,96,0.00,,,0.64,Wunderground v.1.15,2013-06-02 12:48:00,
2013-06-02 08:50:00,68.2,67.0,29.71,SSW,207,0.0,6.0,96,0.00,,,0.64,Wunderground v.1.15,2013-06-02 12:50:00,
2013-06-02 08:53:00,68.1,66.9,29.71,SSW,209,1.0,6.0,96,0.00,,,0.64,Wunderground v.1.15,2013-06-02 12:53:00,
2013-06-02 08:55:00,68.2,66.7,29.70,SW,228,1.0,6.0,95,0.00,,,0.64,Wunderground v.1.15,2013-06-02 12:55:00,
2013-06-02 08:56:00,68.1,66.6,29.71,NE,43,1.0,6.0,95,0.00,,,0.64,Wunderground v.1.15,2013-06-02 12:56:00,
2013-06-02 08:57:00,68.1,66.6,29.71,SSW,204,1.0,6.0,95,0.00,,,0.64,Wunderground v.1.15,2013-06-02 12:57:00,
2013-06-02 08:59:00,68.1,66.6,29.71,SW,224,1.0,6.0,95,0.00,,,0.64,Wunderground v.1.15,2013-06-02 12:59:00,
2013-06-02 09:01:00,68.2,66.7,29.71,WSW,240,1.0,6.0,95,0.00,,,0.64,Wunderground v.1.15,2013-06-02 13:01:00,
2013-06-02 09:03:00,68.1,66.6,29.71,SW,236,1.0,6.0,95,0.00,,,0.64,Wunderground v.1.15,2013-06-02 13:03:00,
2013-06-02 09:04:00,68.1,66.6,29.70,SW,225,1.0,6.0,95,0.00,,,0.64,Wunderground v.1.15,2013-06-02 13:04:00,
2013-06-02 09:08:00,68.1,66.6,29.71,West,259,0.0,6.0,95,0.00,,,0.64,Wunderground v.1.15,2013-06-02 13:08:00,
2013-06-02 09:10:00,68.2,66.7,29.71,SSW,210,0.0,6.0,95,0.00,,,0.64,Wunderground v.1.15,2013-06-02 13:10:00,
2013-06-02 09:14:00,68.3,66.8,29.71,SW,214,0.0,6.0,95,0.00,,,0.64,Wunderground v.1.15,2013-06-02 13:14:00,
2013-06-02 09:15:00,68.3,66.8,29.71,SSE,156,0.0,6.0,95,0.00,,,0.64,Wunderground v.1.15,2013-06-02 13:15:00,
2013-06-02 09:16:00,68.3,66.8,29.71,SSW,200,0.0,6.0,95,0.00,,,0.64,Wunderground v.1.15,2013-06-02 13:16:00,
2013-06-02 09:17:00,68.3,66.8,29.71,SW,225,0.0,6.0,95,0.00,,,0.64,Wunderground v.1.15,2013-06-02 13:17:00,
2013-06-02 09:18:00,68.3,66.8,29.71,SW,224,0.0,6.0,95,0.00,,,0.64,Wunderground v.1.15,2013-06-02 13:18:00,
2013-06-02 09:21:00,68.4,66.9,29.71,SW,224,0.0,6.0,95,0.00,,,0.64,Wunderground v.1.15,2013-06-02 13:21:00,
2013-06-02 09:22:00,68.5,67.0,29.71,SW,224,0.0,6.0,95,0.00,,,0.64,Wunderground v.1.15,2013-06-02 13:22:00,
2013-06-02 09:26:00,68.6,67.1,29.70,SW,217,0.0,6.0,95,0.00,,,0.64,Wunderground v.1.15,2013-06-02 13:26:00,
2013-06-02 09:27:00,68.6,67.1,29.70,SW,219,0.0,6.0,95,0.00,,,0.64,Wunderground v.1.15,2013-06-02 13:27:00,
2013-06-02 09:28:00,68.6,67.1,29.70,WSW,237,0.0,6.0,95,0.00,,,0.64,Wunderground v.1.15,2013-06-02 13:28:00,
2013-06-02 09:29:00,68.6,67.1,29.71,SW,223,0.0,6.0,95,0.00,,,0.64,Wunderground v.1.15,2013-06-02 13:29:00,
2013-06-02 09:32:00,68.7,66.9,29.70,SSW,204,0.0,6.0,94,0.00,,,0.64,Wunderground v.1.15,2013-06-02 13:32:00,
2013-06-02 09:33:00,68.8,67.0,29.71,SW,217,0.0,6.0,94,0.00,,,0.64,Wunderground v.1.15,2013-06-02 13:33:00,
2013-06-02 09:34:00,68.8,67.0,29.71,SW,217,0.0,6.0,94,0.00,,,0.64,Wunderground v.1.15,2013-06-02 13:34:00,
2013-06-02 09:36:00,68.8,67.0,29.71,SW,217,0.0,6.0,94,0.00,,,0.64,Wunderground v.1.15,2013-06-02 13:36:00,
2013-06-02 09:38:00,68.9,67.1,29.71,SW,217,0.0,6.0,94,0.00,,,0.64,Wunderground v.1.15,2013-06-02 13:38:00,
2013-06-02 09:39:00,69.0,67.2,29.70,SW,217,0.0,6.0,94,0.00,,,0.64,Wunderground v.1.15,2013-06-02 13:39:00,
2013-06-02 09:40:00,69.0,67.2,29.71,SW,235,0.0,6.0,94,0.00,,,0.64,Wunderground v.1.15,2013-06-02 13:40:00,
2013-06-02 09:41:00,69.1,67.3,29.70,SW,219,0.0,6.0,94,0.00,,,0.64,Wunderground v.1.15,2013-06-02 13:41:00,
2013-06-02 09:45:00,69.3,67.5,29.71,SW,223,0.0,6.0,94,0.00,,,0.64,Wunderground v.1.15,2013-06-02 13:45:00,
2013-06-02 09:46:00,69.3,67.2,29.71,SW,221,0.0,6.0,93,0.00,,,0.64,Wunderground v.1.15,2013-06-02 13:46:00,
2013-06-02 09:49:00,69.4,67.3,29.71,SE,128,0.0,6.0,93,0.00,,,0.64,Wunderground v.1.15,2013-06-02 13:49:00,
2013-06-02 09:50:00,69.5,67.4,29.71,WSW,243,0.0,6.0,93,0.00,,,0.64,Wunderground v.1.15,2013-06-02 13:50:00,
2013-06-02 09:51:00,69.6,67.5,29.71,SW,234,1.0,6.0,93,0.00,,,0.64,Wunderground v.1.15,2013-06-02 13:51:00,
2013-06-02 09:52:00,69.7,67.6,29.71,SW,226,1.0,6.0,93,0.00,,,0.64,Wunderground v.1.15,2013-06-02 13:52:00,
2013-06-02 09:54:00,69.8,67.7,29.71,SW,226,1.0,6.0,93,0.00,,,0.64,Wunderground v.1.15,2013-06-02 13:54:00,
2013-06-02 09:55:00,69.9,67.8,29.70,SW,226,1.0,6.0,93,0.00,,,0.64,Wunderground v.1.15,2013-06-02 13:55:00,
2013-06-02 09:57:00,70.0,67.9,29.71,SW,226,1.0,6.0,93,0.00,,,0.64,Wunderground v.1.15,2013-06-02 13:57:00,
2013-06-02 10:00:00,70.1,67.7,29.71,WSW,238,0.0,6.0,92,0.00,,,0.64,Wunderground v.1.15,2013-06-02 14:00:00,
2013-06-02 10:02:00,70.2,67.8,29.71,SW,233,0.0,6.0,92,0.00,,,0.64,Wunderground v.1.15,2013-06-02 14:02:00,
2013-06-02 10:04:00,70.3,67.9,29.71,SW,233,0.0,6.0,92,0.00,,,0.64,Wunderground v.1.15,2013-06-02 14:04:00,
2013-06-02 10:05:00,70.3,67.5,29.71,WSW,250,0.0,6.0,91,0.00,,,0.64,Wunderground v.1.15,2013-06-02 14:05:00,
2013-06-02 10:06:00,70.3,67.5,29.71,SW,236,0.0,6.0,91,0.00,,,0.64,Wunderground v.1.15,2013-06-02 14:06:00,
2013-06-02 10:10:00,70.5,67.7,29.71,WSW,252,0.0,6.0,91,0.00,,,0.64,Wunderground v.1.15,2013-06-02 14:10:00,
2013-06-02 10:11:00,70.5,67.7,29.71,WSW,243,0.0,6.0,91,0.00,,,0.64,Wunderground v.1.15,2013-06-02 14:11:00,
2013-06-02 10:12:00,70.6,67.8,29.71,WSW,242,0.0,6.0,91,0.00,,,0.64,Wunderground v.1.15,2013-06-02 14:12:00,
2013-06-02 10:15:00,70.7,67.6,29.71,West,264,1.0,6.0,90,0.00,,,0.64,Wunderground v.1.15,2013-06-02 14:15:00,
2013-06-02 10:17:00,70.8,67.7,29.71,SW,233,1.0,6.0,90,0.00,,,0.64,Wunderground v.1.15,2013-06-02 14:17:00,
2013-06-02 10:18:00,70.9,67.8,29.71,WSW,255,1.0,6.0,90,0.00,,,0.64,Wunderground v.1.15,2013-06-02 14:18:00,
2013-06-02 10:19:00,71.0,67.9,29.71,SW,215,1.0,6.0,90,0.00,,,0.64,Wunderground v.1.15,2013-06-02 14:19:00,
2013-06-02 10:22:00,71.1,68.0,29.71,South,180,1.0,6.0,90,0.00,,,0.64,Wunderground v.1.15,2013-06-02 14:22:00,
2013-06-02 10:24:00,71.3,68.2,29.70,West,261,1.0,6.0,90,0.00,,,0.64,Wunderground v.1.15,2013-06-02 14:24:00,
2013-06-02 10:25:00,71.3,67.9,29.71,SW,214,1.0,6.0,89,0.00,,,0.64,Wunderground v.1.15,2013-06-02 14:25:00,
2013-06-02 10:26:00,71.3,67.9,29.71,SW,224,1.0,6.0,89,0.00,,,0.64,Wunderground v.1.15,2013-06-02 14:26:00,
2013-06-02 10:29:00,71.4,68.0,29.71,SW,221,1.0,6.0,89,0.00,,,0.64,Wunderground v.1.15,2013-06-02 14:29:00,
2013-06-02 10:31:00,71.4,68.0,29.71,SSW,207,1.0,6.0,89,0.00,,,0.64,Wunderground v.1.15,2013-06-02 14:31:00,
2013-06-02 10:32:00,71.5,68.1,29.71,SW,232,1.0,6.0,89,0.00,,,0.64,Wunderground v.1.15,2013-06-02 14:32:00,
2013-06-02 10:34:00,71.7,68.3,29.71,WSW,252,1.0,6.0,89,0.00,,,0.64,Wunderground v.1.15,2013-06-02 14:34:00,
2013-06-02 10:37:00,72.1,68.3,29.71,WSW,248,1.0,6.0,88,0.00,,,0.64,Wunderground v.1.15,2013-06-02 14:37:00,
2013-06-02 10:38:00,72.1,68.3,29.71,SW,232,1.0,6.0,88,0.00,,,0.64,Wunderground v.1.15,2013-06-02 14:38:00,
2013-06-02 10:39:00,72.3,68.5,29.71,SW,224,1.0,6.0,88,0.00,,,0.64,Wunderground v.1.15,2013-06-02 14:39:00,
2013-06-02 10:41:00,72.5,69.1,29.71,SW,231,1.0,6.0,89,0.00,,,0.64,Wunderground v.1.15,2013-06-02 14:41:00,
2013-06-02 10:43:00,72.8,69.4,29.71,SW,224,1.0,6.0,89,0.00,,,0.64,Wunderground v.1.15,2013-06-02 14:43:00,
2013-06-02 10:44:00,72.8,68.7,29.71,West,264,1.0,6.0,87,0.00,,,0.64,Wunderground v.1.15,2013-06-02 14:44:00,
2013-06-02 10:47:00,73.1,68.7,29.71,SSW,212,1.0,6.0,86,0.00,,,0.64,Wunderground v.1.15,2013-06-02 14:47:00,
2013-06-02 10:48:00,73.2,68.8,29.71,NW,307,1.0,6.0,86,0.00,,,0.64,Wunderground v.1.15,2013-06-02 14:48:00,
2013-06-02 10:50:00,73.4,69.0,29.71,SW,221,1.0,1.0,86,0.00,,,0.64,Wunderground v.1.15,2013-06-02 14:50:00,
2013-06-02 10:53:00,73.4,68.6,29.71,West,280,2.0,6.0,85,0.00,,,0.64,Wunderground v.1.15,2013-06-02 14:53:00,
2013-06-02 10:54:00,73.4,68.6,29.71,SW,231,2.0,6.0,85,0.00,,,0.64,Wunderground v.1.15,2013-06-02 14:54:00,
2013-06-02 10:55:00,73.4,68.3,29.71,SW,236,2.0,6.0,84,0.00,,,0.64,Wunderground v.1.15,2013-06-02 14:55:00,
2013-06-02 10:56:00,73.4,68.6,29.71,SW,233,2.0,6.0,85,0.00,,,0.64,Wunderground v.1.15,2013-06-02 14:56:00,
2013-06-02 10:57:00,73.3,68.2,29.71,SW,226,2.0,6.0,84,0.00,,,0.64,Wunderground v.1.15,2013-06-02 14:57:00,
2013-06-02 11:00:00,73.3,67.5,29.71,WNW,302,2.0,6.0,82,0.00,,,0.64,Wunderground v.1.15,2013-06-02 15:00:00,
2013-06-02 11:01:00,73.2,67.4,29.71,SSW,211,3.0,6.0,82,0.00,,,0.64,Wunderground v.1.15,2013-06-02 15:01:00,
2013-06-02 11:02:00,73.2,67.7,29.71,East,83,3.0,6.0,83,0.00,,,0.64,Wunderground v.1.15,2013-06-02 15:02:00,
2013-06-02 11:03:00,73.2,67.7,29.71,SSW,212,3.0,6.0,83,0.00,,,0.64,Wunderground v.1.15,2013-06-02 15:03:00,
2013-06-02 11:05:00,73.2,67.7,29.71,SSW,211,3.0,6.0,83,0.00,,,0.64,Wunderground v.1.15,2013-06-02 15:05:00,
2013-06-02 11:06:00,73.2,67.7,29.71,WSW,246,2.0,6.0,83,0.00,,,0.64,Wunderground v.1.15,2013-06-02 15:06:00,
2013-06-02 11:08:00,73.3,68.2,29.71,East,80,2.0,6.0,84,0.00,,,0.64,Wunderground v.1.15,2013-06-02 15:08:00,
2013-06-02 11:09:00,73.3,68.2,29.71,WSW,252,2.0,6.0,84,0.00,,,0.64,Wunderground v.1.15,2013-06-02 15:09:00,
2013-06-02 11:13:00,73.6,68.1,29.71,West,263,2.0,6.0,83,0.00,,,0.64,Wunderground v.1.15,2013-06-02 15:13:00,
2013-06-02 11:14:00,73.6,67.8,29.71,SW,222,2.0,6.0,82,0.00,,,0.64,Wunderground v.1.15,2013-06-02 15:14:00,
2013-06-02 11:15:00,73.6,67.8,29.71,West,264,1.0,6.0,82,0.00,,,0.64,Wunderground v.1.15,2013-06-02 15:15:00,
2013-06-02 11:16:00,73.6,67.4,29.71,SW,228,1.0,6.0,81,0.00,,,0.64,Wunderground v.1.15,2013-06-02 15:16:00,
2013-06-02 11:19:00,73.7,67.9,29.71,West,271,2.0,6.0,82,0.00,,,0.64,Wunderground v.1.15,2013-06-02 15:19:00,
2013-06-02 11:20:00,73.8,67.6,29.71,WSW,241,2.0,6.0,81,0.00,,,0.64,Wunderground v.1.15,2013-06-02 15:20:00,
2013-06-02 11:21:00,73.8,67.2,29.71,WSW,239,2.0,6.0,80,0.00,,,0.64,Wunderground v.1.15,2013-06-02 15:21:00,
2013-06-02 11:23:00,73.9,67.3,29.71,West,270,2.0,6.0,80,0.00,,,0.64,Wunderground v.1.15,2013-06-02 15:23:00,
2013-06-02 11:25:00,74.0,67.8,29.71,SW,229,2.0,6.0,81,0.00,,,0.64,Wunderground v.1.15,2013-06-02 15:25:00,
2013-06-02 11:28:00,74.1,67.2,29.71,SSW,200,3.0,9.0,79,0.00,,,0.64,Wunderground v.1.15,2013-06-02 15:28:00,
2013-06-02 11:29:00,74.1,67.2,29.71,WNW,283,3.0,9.0,79,0.00,,,0.64,Wunderground v.1.15,2013-06-02 15:29:00,
2013-06-02 11:30:00,74.1,67.2,29.70,NNE,20,3.0,6.0,79,0.00,,,0.64,Wunderground v.1.15,2013-06-02 15:30:00,
2013-06-02 11:31:00,74.1,67.2,29.71,WSW,238,3.0,6.0,79,0.00,,,0.64,Wunderground v.1.15,2013-06-02 15:31:00,
2013-06-02 11:35:00,74.0,67.4,29.71,SW,235,3.0,6.0,80,0.00,,,0.64,Wunderground v.1.15,2013-06-02 15:35:00,
2013-06-02 11:36:00,74.0,67.4,29.71,West,267,3.0,6.0,80,0.00,,,0.64,Wunderground v.1.15,2013-06-02 15:36:00,
2013-06-02 11:37:00,74.0,67.4,29.71,West,274,2.0,6.0,80,0.00,,,0.64,Wunderground v.1.15,2013-06-02 15:37:00,
2013-06-02 11:38:00,74.0,67.4,29.71,SW,228,2.0,6.0,80,0.00,,,0.64,Wunderground v.1.15,2013-06-02 15:38:00,
2013-06-02 11:40:00,73.9,67.0,29.71,WSW,240,2.0,6.0,79,0.00,,,0.64,Wunderground v.1.15,2013-06-02 15:40:00,
2013-06-02 11:44:00,73.8,66.5,29.71,West,259,3.0,11.0,78,0.00,,,0.64,Wunderground v.1.15,2013-06-02 15:44:00,
2013-06-02 11:45:00,73.8,66.1,29.71,SW,226,3.0,11.0,77,0.00,,,0.64,Wunderground v.1.15,2013-06-02 15:45:00,
2013-06-02 11:47:00,73.7,66.4,29.72,West,270,4.0,11.0,78,0.00,,,0.64,Wunderground v.1.15,2013-06-02 15:47:00,
2013-06-02 11:49:00,73.7,66.4,29.72,WNW,284,4.0,11.0,78,0.00,,,0.64,Wunderground v.1.15,2013-06-02 15:49:00,
2013-06-02 11:52:00,73.6,66.7,29.72,West,264,3.0,6.0,79,0.00,,,0.64,Wunderground v.1.15,2013-06-02 15:52:00,
2013-06-02 11:54:00,73.5,65.8,29.71,SSW,200,3.0,6.0,77,0.00,,,0.64,Wunderground v.1.15,2013-06-02 15:54:00,
2013-06-02 11:57:00,73.4,66.5,29.72,SSW,209,3.0,6.0,79,0.00,,,0.64,Wunderground v.1.15,2013-06-02 15:57:00,
2013-06-02 11:59:00,73.3,66.4,29.72,WSW,248,2.0,6.0,79,0.00,,,0.64,Wunderground v.1.15,2013-06-02 15:59:00,
2013-06-02 12:00:00,73.3,66.8,29.72,West,266,2.0,6.0,80,0.00,,,0.64,Wunderground v.1.15,2013-06-02 16:00:00,
2013-06-02 12:01:00,73.3,66.4,29.72,SW,236,2.0,6.0,79,0.00,,,0.64,Wunderground v.1.15,2013-06-02 16:01:00,
2013-06-02 12:05:00,73.1,66.2,29.72,NW,311,2.0,6.0,79,0.00,,,0.64,Wunderground v.1.15,2013-06-02 16:05:00,
2013-06-02 12:06:00,73.1,65.8,29.73,WNW,285,2.0,6.0,78,0.00,,,0.64,Wunderground v.1.15,2013-06-02 16:06:00,
2013-06-02 12:07:00,73.1,66.2,29.72,SW,217,2.0,6.0,79,0.00,,,0.64,Wunderground v.1.15,2013-06-02 16:07:00,
2013-06-02 12:10:00,72.9,64.9,29.72,West,259,3.0,8.0,76,0.00,,,0.64,Wunderground v.1.15,2013-06-02 16:10:00,
2013-06-02 12:13:00,72.9,65.6,29.72,SE,141,3.0,8.0,78,0.00,,,0.64,Wunderground v.1.15,2013-06-02 16:13:00,
2013-06-02 12:14:00,73.0,66.1,29.72,WNW,285,4.0,8.0,79,0.00,,,0.64,Wunderground v.1.15,2013-06-02 16:14:00,
2013-06-02 12:15:00,73.1,65.8,29.72,WSW,239,4.0,8.0,78,0.00,,,0.64,Wunderground v.1.15,2013-06-02 16:15:00,
2013-06-02 12:18:00,73.3,65.7,29.72,WNW,293,4.0,8.0,77,0.00,,,0.64,Wunderground v.1.15,2013-06-02 16:18:00,
2013-06-02 12:19:00,73.5,65.5,29.72,WNW,284,4.0,8.0,76,0.00,,,0.64,Wunderground v.1.15,2013-06-02 16:19:00,
2013-06-02 12:22:00,74.0,65.6,29.72,West,262,3.0,6.0,75,0.00,,,0.64,Wunderground v.1.15,2013-06-02 16:22:00,
2013-06-02 12:23:00,74.2,65.8,29.72,SW,231,4.0,6.0,75,0.00,,,0.64,Wunderground v.1.15,2013-06-02 16:23:00,
2013-06-02 12:24:00,74.3,66.2,29.72,West,278,4.0,6.0,76,0.00,,,0.64,Wunderground v.1.15,2013-06-02 16:24:00,
2013-06-02 12:29:00,75.3,67.2,29.72,SW,228,3.0,8.0,76,0.00,,,0.64,Wunderground v.1.15,2013-06-02 16:29:00,
2013-06-02 12:30:00,75.3,66.4,29.72,West,264,3.0,6.0,74,0.00,,,0.64,Wunderground v.1.15,2013-06-02 16:30:00,
2013-06-02 12:31:00,75.4,65.7,29.72,WNW,294,3.0,6.0,72,0.00,,,0.64,Wunderground v.1.15,2013-06-02 16:31:00,
2013-06-02 12:33:00,75.7,66.0,29.72,WSW,250,3.0,6.0,72,0.00,,,0.64,Wunderground v.1.15,2013-06-02 16:33:00,
2013-06-02 12:34:00,75.7,65.6,29.72,WSW,252,3.0,6.0,71,0.00,,,0.64,Wunderground v.1.15,2013-06-02 16:34:00,
2013-06-02 12:35:00,75.7,65.6,29.72,WSW,253,3.0,6.0,71,0.00,,,0.64,Wunderground v.1.15,2013-06-02 16:35:00,
2013-06-02 12:39:00,76.0,66.3,29.72,SW,236,4.0,6.0,72,0.00,,,0.64,Wunderground v.1.15,2013-06-02 16:39:00,
2013-06-02 12:40:00,76.1,65.6,29.72,WSW,248,4.0,6.0,70,0.00,,,0.64,Wunderground v.1.15,2013-06-02 16:40:00,
2013-06-02 12:42:00,76.2,65.7,29.72,WSW,252,4.0,6.0,70,0.00,,,0.64,Wunderground v.1.15,2013-06-02 16:42:00,
2013-06-02 12:43:00,76.2,65.3,29.72,SSW,205,4.0,6.0,69,0.00,,,0.64,Wunderground v.1.15,2013-06-02 16:43:00,
2013-06-02 12:48:00,75.6,64.7,29.73,WSW,239,5.0,6.0,69,0.00,,,0.64,Wunderground v.1.15,2013-06-02 16:48:00,
2013-06-02 12:49:00,75.6,64.3,29.73,SW,221,5.0,6.0,68,0.00,,,0.64,Wunderground v.1.15,2013-06-02 16:49:00,
2013-06-02 12:50:00,75.3,64.0,29.72,WNW,287,5.0,5.0,68,0.00,,,0.64,Wunderground v.1.15,2013-06-02 16:50:00,
2013-06-02 12:52:00,75.1,64.2,29.72,SW,224,4.0,6.0,69,0.00,,,0.64,Wunderground v.1.15,2013-06-02 16:52:00,
2013-06-02 12:54:00,75.0,64.1,29.72,West,274,4.0,6.0,69,0.00,,,0.64,Wunderground v.1.15,2013-06-02 16:54:00,
2013-06-02 12:56:00,74.8,63.9,29.72,West,259,4.0,7.0,69,0.00,,,0.64,Wunderground v.1.15,2013-06-02 16:56:00,
2013-06-02 12:59:00,74.6,63.3,29.72,SSW,212,4.0,7.0,68,0.00,,,0.64,Wunderground v.1.15,2013-06-02 16:59:00,
2013-06-02 13:00:00,74.5,63.7,29.72,WNW,284,4.0,6.0,69,0.00,,,0.64,Wunderground v.1.15,2013-06-02 17:00:00,
2013-06-02 13:01:00,74.5,64.1,29.72,West,259,4.0,6.0,70,0.00,,,0.64,Wunderground v.1.15,2013-06-02 17:01:00,
2013-06-02 13:02:00,74.4,64.0,29.72,WSW,238,4.0,6.0,70,0.00,,,0.64,Wunderground v.1.15,2013-06-02 17:02:00,
2013-06-02 13:04:00,74.4,64.0,29.72,SW,226,4.0,6.0,70,0.00,,,0.64,Wunderground v.1.15,2013-06-02 17:04:00,
2013-06-02 13:05:00,74.4,64.0,29.72,SW,224,4.0,6.0,70,0.00,,,0.64,Wunderground v.1.15,2013-06-02 17:05:00,
2013-06-02 13:06:00,74.3,62.6,29.72,SSW,203,4.0,6.0,67,0.00,,,0.64,Wunderground v.1.15,2013-06-02 17:06:00,
2013-06-02 13:07:00,74.3,63.1,29.72,West,263,3.0,6.0,68,0.00,,,0.64,Wunderground v.1.15,2013-06-02 17:07:00,
2013-06-02 13:08:00,74.4,63.6,29.72,WSW,249,3.0,6.0,69,0.00,,,0.64,Wunderground v.1.15,2013-06-02 17:08:00,
2013-06-02 13:09:00,74.5,63.2,29.73,West,267,3.0,6.0,68,0.00,,,0.64,Wunderground v.1.15,2013-06-02 17:09:00,
2013-06-02 13:12:00,74.6,63.3,29.72,West,266,4.0,10.0,68,0.00,,,0.64,Wunderground v.1.15,2013-06-02 17:12:00,
2013-06-02 13:14:00,74.6,62.5,29.72,WSW,253,4.0,10.0,66,0.00,,,0.64,Wunderground v.1.15,2013-06-02 17:14:00,
2013-06-02 13:15:00,74.5,62.4,29.72,WSW,250,4.0,10.0,66,0.00,,,0.64,Wunderground v.1.15,2013-06-02 17:15:00,
2013-06-02 13:17:00,74.4,62.3,29.72,WSW,248,4.0,10.0,66,0.00,,,0.64,Wunderground v.1.15,2013-06-02 17:17:00,
2013-06-02 13:18:00,74.2,62.5,29.72,WSW,256,4.0,10.0,67,0.00,,,0.64,Wunderground v.1.15,2013-06-02 17:18:00,
2013-06-02 13:20:00,74.0,62.8,29.72,SW,231,3.0,6.0,68,0.00,,,0.64,Wunderground v.1.15,2013-06-02 17:20:00,
2013-06-02 13:23:00,73.9,63.1,29.72,SW,226,3.0,6.0,69,0.00,,,0.64,Wunderground v.1.15,2013-06-02 17:23:00,
2013-06-02 13:24:00,73.8,62.6,29.72,WSW,241,3.0,6.0,68,0.00,,,0.64,Wunderground v.1.15,2013-06-02 17:24:00,
2013-06-02 13:26:00,73.9,63.5,29.72,SW,217,2.0,6.0,70,0.00,,,0.64,Wunderground v.1.15,2013-06-02 17:26:00,
2013-06-02 13:29:00,74.3,63.5,29.72,NW,315,2.0,6.0,69,0.00,,,0.64,Wunderground v.1.15,2013-06-02 17:29:00,
2013-06-02 13:31:00,74.7,63.9,29.72,ESE,114,2.0,6.0,69,0.00,,,0.64,Wunderground v.1.15,2013-06-02 17:31:00,
2013-06-02 13:32:00,74.8,63.5,29.72,WSW,252,3.0,6.0,68,0.00,,,0.64,Wunderground v.1.15,2013-06-02 17:32:00,
2013-06-02 13:33:00,75.0,63.7,29.71,SW,220,2.0,6.0,68,0.00,,,0.64,Wunderground v.1.15,2013-06-02 17:33:00,
2013-06-02 13:36:00,75.6,64.3,29.72,WSW,245,2.0,6.0,68,0.00,,,0.64,Wunderground v.1.15,2013-06-02 17:36:00,
2013-06-02 13:37:00,75.7,63.5,29.72,WSW,249,3.0,6.0,66,0.00,,,0.64,Wunderground v.1.15,2013-06-02 17:37:00,
2013-06-02 13:38:00,75.8,64.1,29.72,SW,226,3.0,6.0,67,0.00,,,0.64,Wunderground v.1.15,2013-06-02 17:38:00,
2013-06-02 13:41:00,75.8,63.6,29.72,WSW,248,3.0,6.0,66,0.00,,,0.64,Wunderground v.1.15,2013-06-02 17:41:00,
2013-06-02 13:43:00,76.1,63.5,29.71,SW,235,3.0,6.0,65,0.00,,,0.64,Wunderground v.1.15,2013-06-02 17:43:00,
2013-06-02 13:44:00,76.1,63.0,29.71,West,269,4.0,6.0,64,0.00,,,0.64,Wunderground v.1.15,2013-06-02 17:44:00,
2013-06-02 13:47:00,76.2,63.1,29.72,WSW,247,4.0,6.0,64,0.00,,,0.64,Wunderground v.1.15,2013-06-02 17:47:00,
2013-06-02 13:49:00,76.4,63.3,29.72,West,263,4.0,6.0,64,0.00,,,0.64,Wunderground v.1.15,2013-06-02 17:49:00,
2013-06-02 13:50:00,76.5,63.4,29.72,NW,307,4.0,9.0,64,0.00,,,0.64,Wunderground v.1.15,2013-06-02 17:50:00,
2013-06-02 13:51:00,76.5,62.5,29.72,WSW,258,4.0,13.0,62,0.00,,,0.64,Wunderground v.1.15,2013-06-02 17:51:00,
2013-06-02 13:53:00,76.4,62.9,29.72,SW,228,5.0,13.0,63,0.00,,,0.64,Wunderground v.1.15,2013-06-02 17:53:00,
2013-06-02 13:56:00,76.5,63.4,29.72,SSW,201,5.0,13.0,64,0.00,,,0.64,Wunderground v.1.15,2013-06-02 17:56:00,
2013-06-02 13:58:00,76.7,63.2,29.72,WSW,246,5.0,13.0,63,0.00,,,0.64,Wunderground v.1.15,2013-06-02 17:58:00,
2013-06-02 14:00:00,76.7,61.3,29.72,WNW,284,4.0,4.0,59,0.00,,,0.64,Wunderground v.1.15,2013-06-02 18:00:00,
2013-06-02 14:01:00,76.7,62.2,29.72,WSW,239,5.0,5.0,61,0.00,,,0.64,Wunderground v.1.15,2013-06-02 18:01:00,
2013-06-02 14:03:00,76.7,61.8,29.72,West,264,4.0,6.0,60,0.00,,,0.64,Wunderground v.1.15,2013-06-02 18:03:00,
2013-06-02 14:06:00,76.6,61.2,29.72,West,281,4.0,6.0,59,0.00,,,0.64,Wunderground v.1.15,2013-06-02 18:06:00,
2013-06-02 14:08:00,76.8,61.9,29.72,SW,232,5.0,7.0,60,0.00,,,0.64,Wunderground v.1.15,2013-06-02 18:08:00,
2013-06-02 14:11:00,76.7,61.3,29.72,WSW,255,4.0,9.0,59,0.00,,,0.64,Wunderground v.1.15,2013-06-02 18:11:00,
2013-06-02 14:12:00,76.6,61.7,29.72,SW,234,5.0,11.0,60,0.00,,,0.64,Wunderground v.1.15,2013-06-02 18:12:00,
2013-06-02 14:13:00,76.6,62.1,29.72,WSW,246,5.0,11.0,61,0.00,,,0.64,Wunderground v.1.15,2013-06-02 18:13:00,
2013-06-02 14:16:00,76.4,61.0,29.73,SSE,149,5.0,11.0,59,0.00,,,0.64,Wunderground v.1.15,2013-06-02 18:16:00,
2013-06-02 14:18:00,76.4,61.5,29.72,SW,226,5.0,11.0,60,0.00,,,0.64,Wunderground v.1.15,2013-06-02 18:18:00,
2013-06-02 14:20:00,76.3,61.4,29.72,SW,236,5.0,6.0,60,0.00,,,0.64,Wunderground v.1.15,2013-06-02 18:20:00,
2013-06-02 14:21:00,76.3,60.9,29.73,WSW,255,5.0,6.0,59,0.00,,,0.64,Wunderground v.1.15,2013-06-02 18:21:00,
2013-06-02 14:24:00,76.4,62.4,29.72,West,274,5.0,6.0,62,0.00,,,0.64,Wunderground v.1.15,2013-06-02 18:24:00,
2013-06-02 14:26:00,76.5,61.6,29.73,WSW,248,5.0,6.0,60,0.00,,,0.64,Wunderground v.1.15,2013-06-02 18:26:00,
2013-06-02 14:27:00,76.5,60.6,29.72,WSW,245,5.0,7.0,58,0.00,,,0.64,Wunderground v.1.15,2013-06-02 18:27:00,
2013-06-02 14:31:00,76.4,61.0,29.73,West,268,5.0,6.0,59,0.00,,,0.64,Wunderground v.1.15,2013-06-02 18:31:00,
2013-06-02 14:32:00,76.4,61.0,29.73,WNW,297,5.0,6.0,59,0.00,,,0.64,Wunderground v.1.15,2013-06-02 18:32:00,
2013-06-02 14:33:00,76.5,61.1,29.73,SW,232,5.0,6.0,59,0.00,,,0.64,Wunderground v.1.15,2013-06-02 18:33:00,
2013-06-02 14:35:00,76.6,61.2,29.73,WSW,245,6.0,8.0,59,0.00,,,0.64,Wunderground v.1.15,2013-06-02 18:35:00,
2013-06-02 14:36:00,76.5,61.1,29.73,West,262,6.0,8.0,59,0.00,,,0.64,Wunderground v.1.15,2013-06-02 18:36:00,
2013-06-02 14:39:00,76.6,61.2,29.73,West,267,5.0,8.0,59,0.00,,,0.64,Wunderground v.1.15,2013-06-02 18:39:00,
2013-06-02 14:40:00,76.7,61.8,29.73,SSW,197,5.0,6.0,60,0.00,,,0.64,Wunderground v.1.15,2013-06-02 18:40:00,
2013-06-02 14:42:00,76.7,61.3,29.73,WSW,246,5.0,6.0,59,0.00,,,0.64,Wunderground v.1.15,2013-06-02 18:42:00,
2013-06-02 14:43:00,76.7,61.8,29.73,West,274,5.0,6.0,60,0.00,,,0.64,Wunderground v.1.15,2013-06-02 18:43:00,
2013-06-02 14:46:00,76.3,61.4,29.73,East,85,5.0,6.0,60,0.00,,,0.64,Wunderground v.1.15,2013-06-02 18:46:00,
2013-06-02 14:47:00,76.3,60.9,29.73,SSW,205,5.0,6.0,59,0.00,,,0.64,Wunderground v.1.15,2013-06-02 18:47:00,
2013-06-02 14:49:00,76.2,60.8,29.73,SW,224,5.0,6.0,59,0.00,,,0.64,Wunderground v.1.15,2013-06-02 18:49:00,
2013-06-02 14:50:00,76.3,61.9,29.73,South,187,5.0,5.0,61,0.00,,,0.64,Wunderground v.1.15,2013-06-02 18:50:00,
2013-06-02 14:51:00,76.3,61.9,29.73,WSW,245,5.0,6.0,61,0.00,,,0.64,Wunderground v.1.15,2013-06-02 18:51:00,
2013-06-02 14:53:00,76.4,62.0,29.73,West,281,4.0,8.0,61,0.00,,,0.64,Wunderground v.1.15,2013-06-02 18:53:00,
2013-06-02 14:54:00,76.4,61.5,29.73,WSW,245,4.0,8.0,60,0.00,,,0.64,Wunderground v.1.15,2013-06-02 18:54:00,
2013-06-02 14:56:00,76.3,61.4,29.74,West,270,5.0,8.0,60,0.00,,,0.64,Wunderground v.1.15,2013-06-02 18:56:00,
2013-06-02 14:57:00,76.2,60.3,29.73,SW,217,5.0,8.0,58,0.00,,,0.64,Wunderground v.1.15,2013-06-02 18:57:00,
2013-06-02 14:59:00,76.1,61.2,29.73,West,264,5.0,8.0,60,0.00,,,0.64,Wunderground v.1.15,2013-06-02 18:59:00,
2013-06-02 15:01:00,76.2,60.8,29.73,SW,217,5.0,7.0,59,0.00,,,0.64,Wunderground v.1.15,2013-06-02 19:01:00,
2013-06-02 15:02:00,76.1,60.7,29.73,SE,145,6.0,7.0,59,0.00,,,0.64,Wunderground v.1.15,2013-06-02 19:02:00,
2013-06-02 15:03:00,76.0,60.6,29.74,WSW,250,6.0,7.0,59,0.00,,,0.64,Wunderground v.1.15,2013-06-02 19:03:00,
2013-06-02 15:06:00,76.0,61.1,29.73,WSW,257,6.0,7.0,60,0.00,,,0.64,Wunderground v.1.15,2013-06-02 19:06:00,
2013-06-02 15:07:00,76.1,61.2,29.73,WSW,248,6.0,7.0,60,0.00,,,0.64,Wunderground v.1.15,2013-06-02 19:07:00,
2013-06-02 15:10:00,76.0,61.1,29.74,West,277,6.0,6.0,60,0.00,,,0.64,Wunderground v.1.15,2013-06-02 19:10:00,
2013-06-02 15:11:00,76.1,61.7,29.73,SW,219,6.0,6.0,61,0.00,,,0.64,Wunderground v.1.15,2013-06-02 19:11:00,
2013-06-02 15:12:00,76.1,62.1,29.73,WSW,245,5.0,6.0,62,0.00,,,0.64,Wunderground v.1.15,2013-06-02 19:12:00,
2013-06-02 15:14:00,76.3,61.4,29.73,SW,222,5.0,12.0,60,0.00,,,0.64,Wunderground v.1.15,2013-06-02 19:14:00,
2013-06-02 15:16:00,76.0,60.2,29.73,WSW,250,5.0,12.0,58,0.00,,,0.64,Wunderground v.1.15,2013-06-02 19:16:00,
2013-06-02 15:17:00,75.9,60.5,29.74,WSW,238,6.0,12.0,59,0.00,,,0.64,Wunderground v.1.15,2013-06-02 19:17:00,
2013-06-02 15:18:00,75.9,60.5,29.74,WSW,238,5.0,12.0,59,0.00,,,0.64,Wunderground v.1.15,2013-06-02 19:18:00,
2013-06-02 15:20:00,75.8,60.0,29.73,SW,231,5.0,7.0,58,0.00,,,0.64,Wunderground v.1.15,2013-06-02 19:20:00,
2013-06-02 15:22:00,75.6,60.3,29.73,WSW,242,6.0,7.0,59,0.00,,,0.64,Wunderground v.1.15,2013-06-02 19:22:00,
2013-06-02 15:23:00,75.6,59.8,29.73,WSW,257,6.0,10.0,58,0.00,,,0.64,Wunderground v.1.15,2013-06-02 19:23:00,
2013-06-02 15:25:00,75.6,60.3,29.73,SSW,205,6.0,10.0,59,0.00,,,0.64,Wunderground v.1.15,2013-06-02 19:25:00,
2013-06-02 15:26:00,75.6,59.8,29.74,West,264,6.0,10.0,58,0.00,,,0.64,Wunderground v.1.15,2013-06-02 19:26:00,
2013-06-02 15:27:00,75.6,59.3,29.74,West,281,6.0,10.0,57,0.00,,,0.64,Wunderground v.1.15,2013-06-02 19:27:00,
2013-06-02 15:29:00,75.4,59.6,29.73,South,188,7.0,11.0,58,0.00,,,0.64,Wunderground v.1.15,2013-06-02 19:29:00,
2013-06-02 15:31:00,75.4,59.6,29.73,WSW,255,6.0,12.0,58,0.00,,,0.64,Wunderground v.1.15,2013-06-02 19:31:00,
2013-06-02 15:32:00,75.4,59.6,29.73,WSW,257,6.0,12.0,58,0.00,,,0.64,Wunderground v.1.15,2013-06-02 19:32:00,
2013-06-02 15:34:00,75.5,60.2,29.73,WNW,300,6.0,12.0,59,0.00,,,0.64,Wunderground v.1.15,2013-06-02 19:34:00,
2013-06-02 15:37:00,75.7,60.4,29.73,NW,308,5.0,12.0,59,0.00,,,0.64,Wunderground v.1.15,2013-06-02 19:37:00,
2013-06-02 15:38:00,75.8,60.4,29.73,WSW,245,5.0,12.0,59,0.00,,,0.64,Wunderground v.1.15,2013-06-02 19:38:00,
2013-06-02 15:40:00,75.9,60.1,29.73,SW,224,4.0,11.0,58,0.00,,,0.64,Wunderground v.1.15,2013-06-02 19:40:00,
2013-06-02 15:41:00,75.9,60.1,29.73,West,262,4.0,11.0,58,0.00,,,0.64,Wunderground v.1.15,2013-06-02 19:41:00,
2013-06-02 15:42:00,75.9,59.6,29.73,SSW,194,4.0,11.0,57,0.00,,,0.64,Wunderground v.1.15,2013-06-02 19:42:00,
2013-06-02 15:46:00,76.0,59.2,29.73,WSW,252,4.0,11.0,56,0.00,,,0.64,Wunderground v.1.15,2013-06-02 19:46:00,
2013-06-02 15:47:00,76.0,59.7,29.73,SW,221,4.0,11.0,57,0.00,,,0.64,Wunderground v.1.15,2013-06-02 19:47:00,
2013-06-02 15:51:00,76.0,59.2,29.73,WSW,248,5.0,7.0,56,0.00,,,0.64,Wunderground v.1.15,2013-06-02 19:51:00,
2013-06-02 15:53:00,76.0,59.7,29.73,West,266,5.0,7.0,57,0.00,,,0.64,Wunderground v.1.15,2013-06-02 19:53:00,
2013-06-02 15:54:00,76.0,59.2,29.73,SW,219,4.0,7.0,56,0.00,,,0.64,Wunderground v.1.15,2013-06-02 19:54:00,
2013-06-02 15:55:00,76.0,59.2,29.73,SE,131,4.0,7.0,56,0.00,,,0.64,Wunderground v.1.15,2013-06-02 19:55:00,
2013-06-02 15:57:00,76.0,59.2,29.73,WSW,253,4.0,7.0,56,0.00,,,0.64,Wunderground v.1.15,2013-06-02 19:57:00,
2013-06-02 15:59:00,76.2,59.4,29.73,WSW,253,4.0,7.0,56,0.00,,,0.64,Wunderground v.1.15,2013-06-02 19:59:00,
2013-06-02 16:00:00,76.3,59.4,29.72,WSW,237,4.0,4.0,56,0.00,,,0.64,Wunderground v.1.15,2013-06-02 20:00:00,
2013-06-02 16:01:00,76.4,60.0,29.73,West,281,3.0,6.0,57,0.00,,,0.64,Wunderground v.1.15,2013-06-02 20:01:00,
2013-06-02 16:02:00,76.5,60.6,29.73,WNW,294,3.0,6.0,58,0.00,,,0.64,Wunderground v.1.15,2013-06-02 20:02:00,
2013-06-02 16:04:00,76.6,59.2,29.72,SSW,208,4.0,6.0,55,0.00,,,0.64,Wunderground v.1.15,2013-06-02 20:04:00,
2013-06-02 16:06:00,76.7,59.8,29.73,SSE,152,3.0,6.0,56,0.00,,,0.64,Wunderground v.1.15,2013-06-02 20:06:00,
2013-06-02 16:07:00,76.8,60.4,29.73,WSW,240,3.0,6.0,57,0.00,,,0.64,Wunderground v.1.15,2013-06-02 20:07:00,
2013-06-02 16:08:00,76.8,59.9,29.73,WSW,248,3.0,6.0,56,0.00,,,0.64,Wunderground v.1.15,2013-06-02 20:08:00,
2013-06-02 16:09:00,76.8,59.9,29.73,West,274,3.0,6.0,56,0.00,,,0.64,Wunderground v.1.15,2013-06-02 20:09:00,
2013-06-02 16:10:00,76.8,58.9,29.73,SW,217,3.0,6.0,54,0.00,,,0.64,Wunderground v.1.15,2013-06-02 20:10:00,
2013-06-02 16:12:00,76.7,59.8,29.73,West,268,4.0,6.0,56,0.00,,,0.64,Wunderground v.1.15,2013-06-02 20:12:00,
2013-06-02 16:13:00,76.8,59.9,29.73,WSW,246,3.0,6.0,56,0.00,,,0.64,Wunderground v.1.15,2013-06-02 20:13:00,
2013-06-02 16:14:00,76.8,60.4,29.73,SW,225,3.0,6.0,57,0.00,,,0.64,Wunderground v.1.15,2013-06-02 20:14:00,
2013-06-02 16:15:00,76.9,59.5,29.73,SW,231,3.0,6.0,55,0.00,,,0.64,Wunderground v.1.15,2013-06-02 20:15:00,
2013-06-02 16:16:00,76.9,59.5,29.73,WSW,253,3.0,6.0,55,0.00,,,0.64,Wunderground v.1.15,2013-06-02 20:16:00,
2013-06-02 16:17:00,76.9,60.0,29.73,West,274,3.0,6.0,56,0.00,,,0.64,Wunderground v.1.15,2013-06-02 20:17:00,
2013-06-02 16:21:00,76.4,59.5,29.73,West,278,4.0,8.0,56,0.00,,,0.64,Wunderground v.1.15,2013-06-02 20:21:00,
2013-06-02 16:22:00,76.2,58.9,29.74,SSW,200,4.0,8.0,55,0.00,,,0.64,Wunderground v.1.15,2013-06-02 20:22:00,
2013-06-02 16:25:00,75.9,59.6,29.74,West,267,5.0,9.0,57,0.00,,,0.64,Wunderground v.1.15,2013-06-02 20:25:00,
2013-06-02 16:28:00,75.7,59.9,29.74,West,269,5.0,11.0,58,0.00,,,0.64,Wunderground v.1.15,2013-06-02 20:28:00,
2013-06-02 16:29:00,75.7,59.4,29.74,SW,224,5.0,11.0,57,0.00,,,0.64,Wunderground v.1.15,2013-06-02 20:29:00,
2013-06-02 16:30:00,75.6,59.3,29.73,West,264,5.0,12.0,57,0.00,,,0.64,Wunderground v.1.15,2013-06-02 20:30:00,
2013-06-02 16:34:00,75.2,59.4,29.74,WSW,245,5.0,12.0,58,0.00,,,0.64,Wunderground v.1.15,2013-06-02 20:34:00,
2013-06-02 16:35:00,75.2,59.9,29.73,SE,125,5.0,12.0,59,0.00,,,0.64,Wunderground v.1.15,2013-06-02 20:35:00,
2013-06-02 16:36:00,75.2,60.4,29.73,WSW,248,4.0,12.0,60,0.00,,,0.64,Wunderground v.1.15,2013-06-02 20:36:00,
2013-06-02 16:39:00,75.0,59.7,29.73,SSW,207,5.0,12.0,59,0.00,,,0.64,Wunderground v.1.15,2013-06-02 20:39:00,
2013-06-02 16:41:00,75.0,60.6,29.74,West,266,4.0,9.0,61,0.00,,,0.64,Wunderground v.1.15,2013-06-02 20:41:00,
2013-06-02 16:42:00,75.0,60.2,29.73,SSE,166,4.0,9.0,60,0.00,,,0.64,Wunderground v.1.15,2013-06-02 20:42:00,
2013-06-02 16:43:00,75.0,60.2,29.74,West,281,4.0,9.0,60,0.00,,,0.64,Wunderground v.1.15,2013-06-02 20:43:00,
2013-06-02 16:45:00,75.0,59.7,29.74,SSW,212,5.0,15.0,59,0.00,,,0.64,Wunderground v.1.15,2013-06-02 20:45:00,
2013-06-02 16:47:00,74.7,59.9,29.74,WSW,255,6.0,15.0,60,0.00,,,0.64,Wunderground v.1.15,2013-06-02 20:47:00,
2013-06-02 16:48:00,74.6,59.8,29.73,WSW,257,5.0,15.0,60,0.00,,,0.64,Wunderground v.1.15,2013-06-02 20:48:00,
2013-06-02 16:50:00,74.6,59.8,29.74,SSW,207,5.0,5.0,60,0.00,,,0.64,Wunderground v.1.15,2013-06-02 20:50:00,
2013-06-02 16:51:00,74.6,59.8,29.74,WSW,248,6.0,6.0,60,0.00,,,0.64,Wunderground v.1.15,2013-06-02 20:51:00,
2013-06-02 16:55:00,74.4,59.6,29.74,WSW,257,5.0,6.0,60,0.00,,,0.64,Wunderground v.1.15,2013-06-02 20:55:00,
2013-06-02 16:56:00,74.4,59.6,29.74,West,278,5.0,6.0,60,0.00,,,0.64,Wunderground v.1.15,2013-06-02 20:56:00,
2013-06-02 16:57:00,74.3,59.5,29.74,South,177,6.0,6.0,60,0.00,,,0.64,Wunderground v.1.15,2013-06-02 20:57:00,
2013-06-02 16:58:00,74.3,59.5,29.74,SW,221,6.0,9.0,60,0.00,,,0.64,Wunderground v.1.15,2013-06-02 20:58:00,
2013-06-02 17:02:00,74.8,60.9,29.74,WSW,255,4.0,6.0,62,0.00,,,0.64,Wunderground v.1.15,2013-06-02 21:02:00,
2013-06-02 17:03:00,74.9,61.5,29.74,West,273,4.0,6.0,63,0.00,,,0.64,Wunderground v.1.15,2013-06-02 21:03:00,
2013-06-02 17:04:00,75.0,60.6,29.74,SW,222,4.0,6.0,61,0.00,,,0.64,Wunderground v.1.15,2013-06-02 21:04:00,
2013-06-02 17:05:00,75.1,60.7,29.74,WSW,245,4.0,6.0,61,0.00,,,0.64,Wunderground v.1.15,2013-06-02 21:05:00,
2013-06-02 17:08:00,74.9,59.6,29.74,West,271,4.0,12.0,59,0.00,,,0.64,Wunderground v.1.15,2013-06-02 21:08:00,
2013-06-02 17:09:00,74.8,59.5,29.74,West,264,4.0,12.0,59,0.00,,,0.64,Wunderground v.1.15,2013-06-02 21:09:00,
2013-06-02 17:10:00,74.7,58.9,29.74,West,269,4.0,6.0,58,0.00,,,0.64,Wunderground v.1.15,2013-06-02 21:10:00,
2013-06-02 17:12:00,74.6,59.8,29.74,West,281,5.0,6.0,60,0.00,,,0.64,Wunderground v.1.15,2013-06-02 21:12:00,
2013-06-02 17:13:00,74.6,59.8,29.74,WNW,295,5.0,6.0,60,0.00,,,0.64,Wunderground v.1.15,2013-06-02 21:13:00,
2013-06-02 17:14:00,74.6,59.8,29.74,WNW,294,5.0,6.0,60,0.00,,,0.64,Wunderground v.1.15,2013-06-02 21:14:00,
2013-06-02 17:15:00,74.6,59.8,29.74,WSW,247,5.0,6.0,60,0.00,,,0.64,Wunderground v.1.15,2013-06-02 21:15:00,
2013-06-02 17:19:00,74.7,59.4,29.74,WSW,250,4.0,6.0,59,0.00,,,0.64,Wunderground v.1.15,2013-06-02 21:19:00,
2013-06-02 17:20:00,74.7,60.4,29.74,WSW,243,4.0,4.0,61,0.00,,,0.64,Wunderground v.1.15,2013-06-02 21:20:00,
2013-06-02 17:25:00,74.7,59.9,29.74,WSW,255,4.0,10.0,60,0.00,,,0.64,Wunderground v.1.15,2013-06-02 21:25:00,
2013-06-02 17:26:00,74.7,59.9,29.74,WSW,243,4.0,10.0,60,0.00,,,0.64,Wunderground v.1.15,2013-06-02 21:26:00,
2013-06-02 17:27:00,74.6,59.3,29.74,West,268,4.0,10.0,59,0.00,,,0.64,Wunderground v.1.15,2013-06-02 21:27:00,
2013-06-02 17:29:00,74.5,59.7,29.74,South,176,4.0,10.0,60,0.00,,,0.64,Wunderground v.1.15,2013-06-02 21:29:00,
2013-06-02 17:30:00,74.5,59.7,29.74,SSE,166,4.0,6.0,60,0.00,,,0.64,Wunderground v.1.15,2013-06-02 21:30:00,
2013-06-02 17:33:00,74.6,60.3,29.74,WSW,250,5.0,9.0,61,0.00,,,0.64,Wunderground v.1.15,2013-06-02 21:33:00,
2013-06-02 17:34:00,74.6,60.3,29.74,SW,228,5.0,9.0,61,0.00,,,0.64,Wunderground v.1.15,2013-06-02 21:34:00,
2013-06-02 17:36:00,74.5,60.2,29.74,West,276,5.0,9.0,61,0.00,,,0.64,Wunderground v.1.15,2013-06-02 21:36:00,
2013-06-02 17:38:00,74.6,60.3,29.74,WSW,248,4.0,9.0,61,0.00,,,0.64,Wunderground v.1.15,2013-06-02 21:38:00,
2013-06-02 17:39:00,74.6,60.7,29.74,West,260,4.0,9.0,62,0.00,,,0.64,Wunderground v.1.15,2013-06-02 21:39:00,
2013-06-02 17:40:00,74.6,60.3,29.74,SSE,147,4.0,4.0,61,0.00,,,0.64,Wunderground v.1.15,2013-06-02 21:40:00,
2013-06-02 17:45:00,74.8,60.4,29.74,SSW,195,4.0,6.0,61,0.00,,,0.64,Wunderground v.1.15,2013-06-02 21:45:00,
2013-06-02 17:46:00,74.8,60.4,29.74,NW,310,4.0,6.0,61,0.00,,,0.64,Wunderground v.1.15,2013-06-02 21:46:00,
2013-06-02 17:47:00,74.7,59.9,29.74,NW,326,4.0,6.0,60,0.00,,,0.64,Wunderground v.1.15,2013-06-02 21:47:00,
2013-06-02 17:49:00,74.6,59.8,29.74,West,275,4.0,6.0,60,0.00,,,0.64,Wunderground v.1.15,2013-06-02 21:49:00,
2013-06-02 17:51:00,74.4,59.6,29.74,WSW,245,4.0,6.0,60,0.00,,,0.64,Wunderground v.1.15,2013-06-02 21:51:00,
2013-06-02 17:56:00,74.4,60.1,29.74,SW,225,4.0,7.0,61,0.00,,,0.64,Wunderground v.1.15,2013-06-02 21:56:00,
2013-06-02 17:57:00,74.3,60.0,29.74,WSW,242,4.0,7.0,61,0.00,,,0.64,Wunderground v.1.15,2013-06-02 21:57:00,
2013-06-02 17:59:00,74.2,59.9,29.74,SW,225,4.0,7.0,61,0.00,,,0.64,Wunderground v.1.15,2013-06-02 21:59:00,
2013-06-02 18:01:00,74.1,60.2,29.74,WNW,294,4.0,6.0,62,0.00,,,0.64,Wunderground v.1.15,2013-06-02 22:01:00,
2013-06-02 18:04:00,74.2,60.3,29.73,West,266,4.0,6.0,62,0.00,,,0.64,Wunderground v.1.15,2013-06-02 22:04:00,
2013-06-02 18:05:00,74.2,60.3,29.74,WSW,254,4.0,6.0,62,0.00,,,0.64,Wunderground v.1.15,2013-06-02 22:05:00,
2013-06-02 18:06:00,74.2,59.9,29.74,WNW,285,4.0,6.0,61,0.00,,,0.64,Wunderground v.1.15,2013-06-02 22:06:00,
2013-06-02 18:08:00,74.1,59.8,29.74,WSW,252,4.0,6.0,61,0.00,,,0.64,Wunderground v.1.15,2013-06-02 22:08:00,
2013-06-02 18:09:00,74.2,60.3,29.74,West,264,3.0,6.0,62,0.00,,,0.64,Wunderground v.1.15,2013-06-02 22:09:00,
2013-06-02 18:10:00,74.2,60.3,29.74,SSW,201,4.0,6.0,62,0.00,,,0.64,Wunderground v.1.15,2013-06-02 22:10:00,
2013-06-02 18:11:00,74.2,59.9,29.74,SSW,212,4.0,6.0,61,0.00,,,0.64,Wunderground v.1.15,2013-06-02 22:11:00,
2013-06-02 18:12:00,74.1,59.8,29.74,WSW,245,4.0,6.0,61,0.00,,,0.64,Wunderground v.1.15,2013-06-02 22:12:00,
2013-06-02 18:15:00,74.1,59.8,29.74,West,259,4.0,6.0,61,0.00,,,0.64,Wunderground v.1.15,2013-06-02 22:15:00,
2013-06-02 18:16:00,74.1,60.2,29.74,WNW,302,4.0,6.0,62,0.00,,,0.64,Wunderground v.1.15,2013-06-02 22:16:00,
2013-06-02 18:18:00,74.1,59.8,29.74,WNW,290,5.0,8.0,61,0.00,,,0.64,Wunderground v.1.15,2013-06-02 22:18:00,
2013-06-02 18:19:00,74.1,59.8,29.74,West,268,5.0,8.0,61,0.00,,,0.64,Wunderground v.1.15,2013-06-02 22:19:00,
2013-06-02 18:21:00,74.0,59.7,29.74,SW,228,5.0,8.0,61,0.00,,,0.64,Wunderground v.1.15,2013-06-02 22:21:00,
2013-06-02 18:22:00,74.0,60.2,29.74,WSW,249,4.0,8.0,62,0.00,,,0.64,Wunderground v.1.15,2013-06-02 22:22:00,
2013-06-02 18:24:00,74.1,59.8,29.74,SW,219,4.0,8.0,61,0.00,,,0.64,Wunderground v.1.15,2013-06-02 22:24:00,
2013-06-02 18:26:00,74.0,60.2,29.74,WSW,245,4.0,8.0,62,0.00,,,0.64,Wunderground v.1.15,2013-06-02 22:26:00,
2013-06-02 18:27:00,74.0,59.7,29.74,WNW,284,4.0,9.0,61,0.00,,,0.64,Wunderground v.1.15,2013-06-02 22:27:00,
2013-06-02 18:29:00,73.9,59.6,29.74,WSW,253,4.0,9.0,61,0.00,,,0.64,Wunderground v.1.15,2013-06-02 22:29:00,
2013-06-02 18:33:00,73.7,59.9,29.75,WSW,252,5.0,10.0,62,0.00,,,0.64,Wunderground v.1.15,2013-06-02 22:33:00,
2013-06-02 18:34:00,73.7,59.9,29.75,WSW,248,4.0,10.0,62,0.00,,,0.64,Wunderground v.1.15,2013-06-02 22:34:00,
2013-06-02 18:37:00,73.6,59.8,29.75,SW,225,5.0,10.0,62,0.00,,,0.64,Wunderground v.1.15,2013-06-02 22:37:00,
2013-06-02 18:38:00,73.6,60.2,29.75,WSW,249,5.0,10.0,63,0.00,,,0.64,Wunderground v.1.15,2013-06-02 22:38:00,
2013-06-02 18:40:00,73.6,60.2,29.75,SW,233,4.0,6.0,63,0.00,,,0.64,Wunderground v.1.15,2013-06-02 22:40:00,
2013-06-02 18:44:00,73.6,60.7,29.75,SW,219,4.0,9.0,64,0.00,,,0.64,Wunderground v.1.15,2013-06-02 22:44:00,
2013-06-02 18:45:00,73.6,60.2,29.75,SW,235,4.0,9.0,63,0.00,,,0.64,Wunderground v.1.15,2013-06-02 22:45:00,
2013-06-02 18:46:00,73.5,60.1,29.75,WNW,284,4.0,9.0,63,0.00,,,0.64,Wunderground v.1.15,2013-06-02 22:46:00,
2013-06-02 18:50:00,73.7,60.8,29.75,WSW,238,3.0,6.0,64,0.00,,,0.64,Wunderground v.1.15,2013-06-02 22:50:00,
2013-06-02 18:51:00,73.8,60.9,29.76,WSW,241,3.0,6.0,64,0.00,,,0.64,Wunderground v.1.15,2013-06-02 22:51:00,
2013-06-02 18:52:00,73.7,60.3,29.76,WSW,252,3.0,6.0,63,0.00,,,0.64,Wunderground v.1.15,2013-06-02 22:52:00,
2013-06-02 18:55:00,73.9,61.0,29.76,SSE,162,3.0,6.0,64,0.00,,,0.64,Wunderground v.1.15,2013-06-02 22:55:00,
2013-06-02 18:56:00,73.9,61.0,29.76,West,274,2.0,6.0,64,0.00,,,0.64,Wunderground v.1.15,2013-06-02 22:56:00,
2013-06-02 18:57:00,73.9,60.5,29.76,SW,226,2.0,6.0,63,0.00,,,0.64,Wunderground v.1.15,2013-06-02 22:57:00,
2013-06-02 18:58:00,73.9,60.5,29.76,SW,230,2.0,6.0,63,0.00,,,0.64,Wunderground v.1.15,2013-06-02 22:58:00,
2013-06-02 19:00:00,73.8,60.9,29.76,SSW,200,3.0,3.0,64,0.00,,,0.64,Wunderground v.1.15,2013-06-02 23:00:00,
2013-06-02 19:04:00,73.6,60.7,29.76,SW,225,2.0,6.0,64,0.00,,,0.64,Wunderground v.1.15,2013-06-02 23:04:00,
2013-06-02 19:05:00,73.5,61.0,29.76,WNW,300,2.0,6.0,65,0.00,,,0.64,Wunderground v.1.15,2013-06-02 23:05:00,
2013-06-02 19:06:00,73.3,60.4,29.76,SW,235,3.0,6.0,64,0.00,,,0.64,Wunderground v.1.15,2013-06-02 23:06:00,
2013-06-02 19:08:00,73.1,60.6,29.76,SSW,205,2.0,6.0,65,0.00,,,0.64,Wunderground v.1.15,2013-06-02 23:08:00,
2013-06-02 19:09:00,73.0,60.5,29.77,WNW,283,2.0,6.0,65,0.00,,,0.64,Wunderground v.1.15,2013-06-02 23:09:00,
2013-06-02 19:14:00,72.4,60.4,29.77,WSW,242,2.0,6.0,66,0.00,,,0.64,Wunderground v.1.15,2013-06-02 23:14:00,
2013-06-02 19:15:00,72.3,60.3,29.77,SW,224,2.0,6.0,66,0.00,,,0.64,Wunderground v.1.15,2013-06-02 23:15:00,
2013-06-02 19:18:00,72.1,60.5,29.77,WSW,249,2.0,6.0,67,0.00,,,0.64,Wunderground v.1.15,2013-06-02 23:18:00,
2013-06-02 19:19:00,72.0,60.4,29.77,SW,231,2.0,6.0,67,0.00,,,0.64,Wunderground v.1.15,2013-06-02 23:19:00,
2013-06-02 19:21:00,71.9,60.3,29.77,West,261,2.0,6.0,67,0.00,,,0.64,Wunderground v.1.15,2013-06-02 23:21:00,
2013-06-02 19:23:00,71.8,60.2,29.77,SSW,193,2.0,6.0,67,0.00,,,0.64,Wunderground v.1.15,2013-06-02 23:23:00,
2013-06-02 19:24:00,71.8,60.2,29.77,WSW,250,2.0,6.0,67,0.00,,,0.64,Wunderground v.1.15,2013-06-02 23:24:00,
2013-06-02 19:25:00,71.7,60.2,29.77,SSW,203,2.0,6.0,67,0.00,,,0.64,Wunderground v.1.15,2013-06-02 23:25:00,
2013-06-02 19:28:00,71.6,60.1,29.77,West,274,2.0,6.0,67,0.00,,,0.64,Wunderground v.1.15,2013-06-02 23:28:00,
2013-06-02 19:29:00,71.6,60.1,29.77,West,259,2.0,6.0,67,0.00,,,0.64,Wunderground v.1.15,2013-06-02 23:29:00,
2013-06-02 19:30:00,71.5,60.4,29.77,SW,222,2.0,2.0,68,0.00,,,0.64,Wunderground v.1.15,2013-06-02 23:30:00,
2013-06-02 19:33:00,71.4,60.3,29.77,WSW,257,2.0,6.0,68,0.00,,,0.64,Wunderground v.1.15,2013-06-02 23:33:00,
2013-06-02 19:35:00,71.3,59.8,29.77,WSW,240,2.0,6.0,67,0.00,,,0.64,Wunderground v.1.15,2013-06-02 23:35:00,
2013-06-02 19:36:00,71.3,59.8,29.77,West,270,2.0,6.0,67,0.00,,,0.64,Wunderground v.1.15,2013-06-02 23:36:00,
2013-06-02 19:38:00,71.2,59.7,29.77,WNW,285,3.0,6.0,67,0.00,,,0.64,Wunderground v.1.15,2013-06-02 23:38:00,
2013-06-02 19:39:00,71.2,60.1,29.77,SW,224,3.0,6.0,68,0.00,,,0.64,Wunderground v.1.15,2013-06-02 23:39:00,
2013-06-02 19:40:00,71.2,60.1,29.77,West,274,3.0,3.0,68,0.00,,,0.64,Wunderground v.1.15,2013-06-02 23:40:00,
2013-06-02 19:42:00,71.1,60.0,29.77,SSW,211,3.0,6.0,68,0.00,,,0.64,Wunderground v.1.15,2013-06-02 23:42:00,
2013-06-02 19:43:00,71.1,60.0,29.77,WSW,256,3.0,6.0,68,0.00,,,0.64,Wunderground v.1.15,2013-06-02 23:43:00,
2013-06-02 19:46:00,70.9,60.2,29.77,SSW,192,2.0,6.0,69,0.00,,,0.64,Wunderground v.1.15,2013-06-02 23:46:00,
2013-06-02 19:47:00,70.9,60.2,29.78,SSW,211,2.0,6.0,69,0.00,,,0.64,Wunderground v.1.15,2013-06-02 23:47:00,
2013-06-02 19:48:00,70.9,60.2,29.78,West,264,2.0,6.0,69,0.00,,,0.64,Wunderground v.1.15,2013-06-02 23:48:00,
2013-06-02 19:52:00,70.7,60.0,29.78,WSW,239,2.0,6.0,69,0.00,,,0.64,Wunderground v.1.15,2013-06-02 23:52:00,
2013-06-02 19:53:00,70.7,60.0,29.78,SW,224,2.0,6.0,69,0.00,,,0.64,Wunderground v.1.15,2013-06-02 23:53:00,
2013-06-02 19:56:00,70.6,59.9,29.78,West,274,1.0,6.0,69,0.00,,,0.64,Wunderground v.1.15,2013-06-02 23:56:00,
2013-06-02 19:57:00,70.5,59.8,29.78,WSW,250,2.0,6.0,69,0.00,,,0.64,Wunderground v.1.15,2013-06-02 23:57:00,
2013-06-02 19:58:00,70.5,60.2,29.78,WSW,252,1.0,6.0,70,0.00,,,0.64,Wunderground v.1.15,2013-06-02 23:58:00,
2013-06-02 20:01:00,70.4,60.1,29.78,SW,232,1.0,6.0,70,0.00,,,0.64,Wunderground v.1.15,2013-06-03 00:01:00,
2013-06-02 20:02:00,70.3,60.1,29.78,SW,224,1.0,6.0,70,0.00,,,0.64,Wunderground v.1.15,2013-06-03 00:02:00,
2013-06-02 20:03:00,70.3,60.1,29.78,West,259,1.0,6.0,70,0.00,,,0.64,Wunderground v.1.15,2013-06-03 00:03:00,
2013-06-02 20:04:00,70.2,60.0,29.78,West,263,1.0,6.0,70,0.00,,,0.64,Wunderground v.1.15,2013-06-03 00:04:00,
2013-06-02 20:08:00,70.0,60.2,29.78,WSW,249,1.0,6.0,71,0.00,,,0.64,Wunderground v.1.15,2013-06-03 00:08:00,
2013-06-02 20:09:00,70.0,60.2,29.78,SW,222,1.0,6.0,71,0.00,,,0.64,Wunderground v.1.15,2013-06-03 00:09:00,
2013-06-02 20:10:00,69.9,60.1,29.78,West,267,1.0,6.0,71,0.00,,,0.64,Wunderground v.1.15,2013-06-03 00:10:00,
2013-06-02 20:11:00,69.9,60.1,29.78,WSW,242,1.0,6.0,71,0.00,,,0.64,Wunderground v.1.15,2013-06-03 00:11:00,
2013-06-02 20:13:00,69.8,60.0,29.78,SW,236,1.0,6.0,71,0.00,,,0.64,Wunderground v.1.15,2013-06-03 00:13:00,
2013-06-02 20:14:00,69.7,59.9,29.78,WSW,237,1.0,6.0,71,0.00,,,0.64,Wunderground v.1.15,2013-06-03 00:14:00,
2013-06-02 20:16:00,69.7,59.9,29.78,SW,221,1.0,6.0,71,0.00,,,0.64,Wunderground v.1.15,2013-06-03 00:16:00,
2013-06-02 20:17:00,69.7,59.9,29.78,WSW,250,1.0,6.0,71,0.00,,,0.64,Wunderground v.1.15,2013-06-03 00:17:00,
2013-06-02 20:19:00,69.6,59.8,29.78,WSW,246,1.0,6.0,71,0.00,,,0.64,Wunderground v.1.15,2013-06-03 00:19:00,
2013-06-02 20:20:00,69.6,59.8,29.78,SW,232,1.0,1.0,71,0.00,,,0.64,Wunderground v.1.15,2013-06-03 00:20:00,
2013-06-02 20:21:00,69.6,59.8,29.78,WSW,249,1.0,2.0,71,0.00,,,0.64,Wunderground v.1.15,2013-06-03 00:21:00,
2013-06-02 20:25:00,69.4,60.0,29.79,SW,228,1.0,6.0,72,0.00,,,0.64,Wunderground v.1.15,2013-06-03 00:25:00,
2013-06-02 20:26:00,69.4,60.0,29.79,WSW,252,1.0,6.0,72,0.00,,,0.64,Wunderground v.1.15,2013-06-03 00:26:00,
2013-06-02 20:28:00,69.4,60.0,29.79,SSW,211,1.0,6.0,72,0.00,,,0.64,Wunderground v.1.15,2013-06-03 00:28:00,
2013-06-02 20:29:00,69.4,60.0,29.79,SW,221,1.0,6.0,72,0.00,,,0.64,Wunderground v.1.15,2013-06-03 00:29:00,
2013-06-02 20:31:00,69.4,60.0,29.79,SSW,210,1.0,6.0,72,0.00,,,0.64,Wunderground v.1.15,2013-06-03 00:31:00,
2013-06-02 20:34:00,69.4,60.0,29.79,West,269,1.0,6.0,72,0.00,,,0.64,Wunderground v.1.15,2013-06-03 00:34:00,
2013-06-02 20:35:00,69.4,60.0,29.79,West,266,1.0,6.0,72,0.00,,,0.64,Wunderground v.1.15,2013-06-03 00:35:00,
2013-06-02 20:36:00,69.3,59.9,29.79,West,266,1.0,6.0,72,0.00,,,0.64,Wunderground v.1.15,2013-06-03 00:36:00,
2013-06-02 20:40:00,69.4,60.0,29.80,WSW,250,1.0,6.0,72,0.00,,,0.64,Wunderground v.1.15,2013-06-03 00:40:00,
2013-06-02 20:41:00,69.4,60.0,29.80,WNW,293,1.0,6.0,72,0.00,,,0.64,Wunderground v.1.15,2013-06-03 00:41:00,
2013-06-02 20:43:00,69.4,60.0,29.80,West,281,1.0,6.0,72,0.00,,,0.64,Wunderground v.1.15,2013-06-03 00:43:00,
2013-06-02 20:44:00,69.4,60.4,29.80,WSW,255,1.0,6.0,73,0.00,,,0.64,Wunderground v.1.15,2013-06-03 00:44:00,
2013-06-02 20:45:00,69.4,60.4,29.80,West,274,1.0,6.0,73,0.00,,,0.64,Wunderground v.1.15,2013-06-03 00:45:00,
2013-06-02 20:46:00,69.4,60.8,29.80,West,274,1.0,6.0,74,0.00,,,0.64,Wunderground v.1.15,2013-06-03 00:46:00,
2013-06-02 20:47:00,69.4,60.8,29.80,West,269,1.0,6.0,74,0.00,,,0.64,Wunderground v.1.15,2013-06-03 00:47:00,
2013-06-02 20:49:00,69.4,60.8,29.80,West,262,1.0,6.0,74,0.00,,,0.64,Wunderground v.1.15,2013-06-03 00:49:00,
2013-06-02 20:51:00,69.2,60.9,29.80,WSW,252,1.0,6.0,75,0.00,,,0.64,Wunderground v.1.15,2013-06-03 00:51:00,
2013-06-02 20:52:00,69.2,60.9,29.80,WSW,252,1.0,6.0,75,0.00,,,0.64,Wunderground v.1.15,2013-06-03 00:52:00,
2013-06-02 20:53:00,69.1,60.8,29.80,West,263,1.0,6.0,75,0.00,,,0.64,Wunderground v.1.15,2013-06-03 00:53:00,
2013-06-02 20:54:00,69.0,60.7,29.80,West,261,1.0,6.0,75,0.00,,,0.64,Wunderground v.1.15,2013-06-03 00:54:00,
2013-06-02 20:56:00,68.8,60.6,29.80,West,259,1.0,6.0,75,0.00,,,0.64,Wunderground v.1.15,2013-06-03 00:56:00,
2013-06-02 20:57:00,68.8,60.6,29.80,NW,309,1.0,6.0,75,0.00,,,0.64,Wunderground v.1.15,2013-06-03 00:57:00,
2013-06-02 20:58:00,68.7,60.5,29.80,SW,221,1.0,6.0,75,0.00,,,0.64,Wunderground v.1.15,2013-06-03 00:58:00,
2013-06-02 21:02:00,68.6,60.7,29.81,West,267,1.0,6.0,76,0.00,,,0.64,Wunderground v.1.15,2013-06-03 01:02:00,
2013-06-02 21:04:00,68.5,60.6,29.81,West,261,1.0,6.0,76,0.00,,,0.64,Wunderground v.1.15,2013-06-03 01:04:00,
2013-06-02 21:05:00,68.5,60.6,29.81,WSW,245,1.0,6.0,76,0.00,,,0.64,Wunderground v.1.15,2013-06-03 01:05:00,
2013-06-02 21:06:00,68.4,60.5,29.81,WSW,245,1.0,6.0,76,0.00,,,0.64,Wunderground v.1.15,2013-06-03 01:06:00,
2013-06-02 21:10:00,68.3,60.4,29.81,West,259,1.0,1.0,76,0.00,,,0.64,Wunderground v.1.15,2013-06-03 01:10:00,
2013-06-02 21:12:00,68.2,60.7,29.82,WNW,301,1.0,6.0,77,0.00,,,0.64,Wunderground v.1.15,2013-06-03 01:12:00,
2013-06-02 21:13:00,68.2,60.3,29.82,SW,233,1.0,6.0,76,0.00,,,0.64,Wunderground v.1.15,2013-06-03 01:13:00,
2013-06-02 21:14:00,68.1,59.9,29.82,West,269,1.0,7.0,75,0.00,,,0.64,Wunderground v.1.15,2013-06-03 01:14:00,
2013-06-02 21:15:00,68.1,59.9,29.82,West,268,1.0,7.0,75,0.00,,,0.64,Wunderground v.1.15,2013-06-03 01:15:00,
2013-06-02 21:16:00,68.0,59.8,29.82,West,260,1.0,7.0,75,0.00,,,0.64,Wunderground v.1.15,2013-06-03 01:16:00,
2013-06-02 21:18:00,67.7,59.1,29.82,West,268,2.0,7.0,74,0.00,,,0.64,Wunderground v.1.15,2013-06-03 01:18:00,
2013-06-02 21:19:00,67.6,59.0,29.82,SW,228,2.0,7.0,74,0.00,,,0.64,Wunderground v.1.15,2013-06-03 01:19:00,
2013-06-02 21:21:00,67.4,58.8,29.83,WNW,292,3.0,6.0,74,0.00,,,0.64,Wunderground v.1.15,2013-06-03 01:21:00,
2013-06-02 21:22:00,67.3,58.7,29.83,WNW,283,4.0,6.0,74,0.00,,,0.64,Wunderground v.1.15,2013-06-03 01:22:00,
2013-06-02 21:23:00,67.2,58.6,29.83,West,272,4.0,6.0,74,0.00,,,0.64,Wunderground v.1.15,2013-06-03 01:23:00,
2013-06-02 21:26:00,66.9,58.3,29.83,WNW,287,4.0,6.0,74,0.00,,,0.64,Wunderground v.1.15,2013-06-03 01:26:00,
2013-06-02 21:28:00,66.8,58.2,29.83,SW,233,3.0,6.0,74,0.00,,,0.64,Wunderground v.1.15,2013-06-03 01:28:00,
2013-06-02 21:29:00,66.7,58.5,29.83,WSW,255,3.0,6.0,75,0.00,,,0.64,Wunderground v.1.15,2013-06-03 01:29:00,
2013-06-02 21:30:00,66.6,58.1,29.83,West,267,3.0,6.0,74,0.00,,,0.64,Wunderground v.1.15,2013-06-03 01:30:00,
2013-06-02 21:32:00,66.5,58.0,29.83,WSW,252,3.0,7.0,74,0.00,,,0.64,Wunderground v.1.15,2013-06-03 01:32:00,
2013-06-02 21:35:00,66.1,57.2,29.83,WNW,284,3.0,7.0,73,0.00,,,0.64,Wunderground v.1.15,2013-06-03 01:35:00,
2013-06-02 21:38:00,65.9,57.4,29.84,WSW,242,3.0,7.0,74,0.00,,,0.64,Wunderground v.1.15,2013-06-03 01:38:00,
2013-06-02 21:41:00,65.7,57.2,29.84,WNW,282,3.0,6.0,74,0.00,,,0.64,Wunderground v.1.15,2013-06-03 01:41:00,
2013-06-02 21:43:00,65.5,57.0,29.84,West,278,3.0,6.0,74,0.00,,,0.64,Wunderground v.1.15,2013-06-03 01:43:00,
2013-06-02 21:44:00,65.5,57.0,29.84,NNE,15,3.0,6.0,74,0.00,,,0.64,Wunderground v.1.15,2013-06-03 01:44:00,
2013-06-02 21:46:00,65.3,56.8,29.84,WSW,243,3.0,9.0,74,0.00,,,0.64,Wunderground v.1.15,2013-06-03 01:46:00,
2013-06-02 21:47:00,65.1,56.2,29.84,NW,321,3.0,9.0,73,0.00,,,0.64,Wunderground v.1.15,2013-06-03 01:47:00,
2013-06-02 21:49:00,64.8,55.9,29.85,WNW,287,3.0,9.0,73,0.00,,,0.64,Wunderground v.1.15,2013-06-03 01:49:00,
2013-06-02 21:50:00,64.7,55.8,29.85,West,268,3.0,6.0,73,0.00,,,0.64,Wunderground v.1.15,2013-06-03 01:50:00,
2013-06-02 21:52:00,64.3,55.5,29.85,West,267,3.0,6.0,73,0.00,,,0.64,Wunderground v.1.15,2013-06-03 01:52:00,
2013-06-02 21:54:00,64.1,55.6,29.85,West,274,3.0,6.0,74,0.00,,,0.64,Wunderground v.1.15,2013-06-03 01:54:00,
2013-06-02 21:55:00,64.0,55.5,29.85,West,274,3.0,6.0,74,0.00,,,0.64,Wunderground v.1.15,2013-06-03 01:55:00,
2013-06-02 21:56:00,63.9,55.4,29.85,WNW,293,3.0,6.0,74,0.00,,,0.64,Wunderground v.1.15,2013-06-03 01:56:00,
2013-06-02 21:57:00,63.8,55.4,29.85,West,274,3.0,6.0,74,0.00,,,0.64,Wunderground v.1.15,2013-06-03 01:57:00,
2013-06-02 22:01:00,63.3,55.6,29.85,WNW,292,3.0,6.0,76,0.00,,,0.64,Wunderground v.1.15,2013-06-03 02:01:00,
2013-06-02 22:03:00,63.0,55.7,29.85,South,177,3.0,6.0,77,0.00,,,0.64,Wunderground v.1.15,2013-06-03 02:03:00,
2013-06-02 22:04:00,62.9,55.6,29.85,WSW,249,3.0,6.0,77,0.00,,,0.64,Wunderground v.1.15,2013-06-03 02:04:00,
2013-06-02 22:05:00,62.8,55.5,29.86,WSW,238,2.0,6.0,77,0.00,,,0.64,Wunderground v.1.15,2013-06-03 02:05:00,
2013-06-02 22:08:00,62.5,55.5,29.86,WNW,287,2.0,6.0,78,0.00,,,0.64,Wunderground v.1.15,2013-06-03 02:08:00,
2013-06-02 22:10:00,62.3,55.4,29.86,WSW,245,2.0,6.0,78,0.00,,,0.64,Wunderground v.1.15,2013-06-03 02:10:00,
2013-06-02 22:12:00,62.1,55.5,29.86,WSW,246,2.0,6.0,79,0.00,,,0.64,Wunderground v.1.15,2013-06-03 02:12:00,
2013-06-02 22:13:00,62.0,55.4,29.86,NNW,335,2.0,6.0,79,0.00,,,0.64,Wunderground v.1.15,2013-06-03 02:13:00,
2013-06-02 22:14:00,62.0,55.4,29.86,WSW,248,2.0,6.0,79,0.00,,,0.64,Wunderground v.1.15,2013-06-03 02:14:00,
2013-06-02 22:16:00,61.8,55.2,29.86,WSW,243,2.0,6.0,79,0.00,,,0.64,Wunderground v.1.15,2013-06-03 02:16:00,
2013-06-02 22:18:00,61.6,55.4,29.86,WNW,283,2.0,6.0,80,0.00,,,0.64,Wunderground v.1.15,2013-06-03 02:18:00,
2013-06-02 22:19:00,61.5,55.3,29.86,NW,325,2.0,6.0,80,0.00,,,0.64,Wunderground v.1.15,2013-06-03 02:19:00,
2013-06-02 22:21:00,61.3,55.1,29.86,WNW,283,2.0,6.0,80,0.00,,,0.64,Wunderground v.1.15,2013-06-03 02:21:00,
2013-06-02 22:27:00,60.8,54.9,29.86,West,268,1.0,6.0,81,0.00,,,0.64,Wunderground v.1.15,2013-06-03 02:27:00,
2013-06-02 22:28:00,60.8,54.9,29.86,NW,316,1.0,6.0,81,0.00,,,0.64,Wunderground v.1.15,2013-06-03 02:28:00,
2013-06-02 22:29:00,60.7,54.8,29.86,NW,323,1.0,6.0,81,0.00,,,0.64,Wunderground v.1.15,2013-06-03 02:29:00,
2013-06-02 22:32:00,60.5,54.3,29.86,WSW,249,1.0,6.0,80,0.00,,,0.64,Wunderground v.1.15,2013-06-03 02:32:00,
2013-06-02 22:34:00,60.3,54.1,29.86,West,266,1.0,6.0,80,0.00,,,0.64,Wunderground v.1.15,2013-06-03 02:34:00,
2013-06-02 22:35:00,60.2,54.3,29.87,SW,232,1.0,6.0,81,0.00,,,0.64,Wunderground v.1.15,2013-06-03 02:35:00,
2013-06-02 22:37:00,60.1,53.9,29.86,WSW,257,1.0,6.0,80,0.00,,,0.64,Wunderground v.1.15,2013-06-03 02:37:00,
2013-06-02 22:41:00,59.7,53.9,29.86,West,266,2.0,6.0,81,0.00,,,0.64,Wunderground v.1.15,2013-06-03 02:41:00,
2013-06-02 22:44:00,59.6,54.1,29.87,WSW,248,2.0,6.0,82,0.00,,,0.64,Wunderground v.1.15,2013-06-03 02:44:00,
2013-06-02 22:45:00,59.5,53.7,29.86,West,268,2.0,6.0,81,0.00,,,0.64,Wunderground v.1.15,2013-06-03 02:45:00,
2013-06-02 22:46:00,59.5,53.7,29.86,WNW,289,2.0,6.0,81,0.00,,,0.64,Wunderground v.1.15,2013-06-03 02:46:00,
2013-06-02 22:49:00,59.3,53.5,29.87,WNW,303,2.0,6.0,81,0.00,,,0.64,Wunderground v.1.15,2013-06-03 02:49:00,
2013-06-02 22:53:00,59.2,53.7,29.87,West,271,2.0,6.0,82,0.00,,,0.64,Wunderground v.1.15,2013-06-03 02:53:00,
2013-06-02 22:54:00,59.2,53.7,29.87,SW,226,2.0,6.0,82,0.00,,,0.64,Wunderground v.1.15,2013-06-03 02:54:00,
2013-06-02 22:55:00,59.1,53.6,29.87,WNW,289,2.0,6.0,82,0.00,,,0.64,Wunderground v.1.15,2013-06-03 02:55:00,
2013-06-02 22:56:00,59.1,53.6,29.87,West,265,2.0,6.0,82,0.00,,,0.64,Wunderground v.1.15,2013-06-03 02:56:00,
2013-06-02 22:58:00,59.1,53.6,29.87,WSW,257,2.0,6.0,82,0.00,,,0.64,Wunderground v.1.15,2013-06-03 02:58:00,
2013-06-02 23:00:00,59.0,53.5,29.87,West,267,2.0,6.0,82,0.00,,,0.64,Wunderground v.1.15,2013-06-03 03:00:00,
2013-06-02 23:02:00,59.0,53.5,29.87,West,262,2.0,6.0,82,0.00,,,0.64,Wunderground v.1.15,2013-06-03 03:02:00,
2013-06-02 23:04:00,58.9,53.7,29.87,West,274,2.0,6.0,83,0.00,,,0.64,Wunderground v.1.15,2013-06-03 03:04:00,
2013-06-02 23:07:00,58.8,53.6,29.87,West,262,2.0,6.0,83,0.00,,,0.64,Wunderground v.1.15,2013-06-03 03:07:00,
2013-06-02 23:08:00,58.8,53.6,29.87,WSW,238,2.0,6.0,83,0.00,,,0.64,Wunderground v.1.15,2013-06-03 03:08:00,
2013-06-02 23:09:00,58.7,53.5,29.87,WNW,287,2.0,6.0,83,0.00,,,0.64,Wunderground v.1.15,2013-06-03 03:09:00,
2013-06-02 23:10:00,58.7,53.5,29.87,WSW,255,2.0,2.0,83,0.00,,,0.64,Wunderground v.1.15,2013-06-03 03:10:00,
2013-06-02 23:12:00,58.6,53.5,29.87,West,274,2.0,6.0,83,0.00,,,0.64,Wunderground v.1.15,2013-06-03 03:12:00,
2013-06-02 23:13:00,58.6,53.5,29.87,WSW,249,2.0,6.0,83,0.00,,,0.64,Wunderground v.1.15,2013-06-03 03:13:00,
2013-06-02 23:14:00,58.6,53.5,29.87,West,269,2.0,6.0,83,0.00,,,0.64,Wunderground v.1.15,2013-06-03 03:14:00,
2013-06-02 23:15:00,58.6,53.5,29.87,West,273,2.0,6.0,83,0.00,,,0.64,Wunderground v.1.15,2013-06-03 03:15:00,
2013-06-02 23:16:00,58.5,53.4,29.87,West,273,2.0,6.0,83,0.00,,,0.64,Wunderground v.1.15,2013-06-03 03:16:00,
2013-06-02 23:19:00,58.4,53.3,29.88,West,273,2.0,6.0,83,0.00,,,0.64,Wunderground v.1.15,2013-06-03 03:19:00,
2013-06-02 23:20:00,58.4,53.3,29.88,WSW,257,2.0,2.0,83,0.00,,,0.64,Wunderground v.1.15,2013-06-03 03:20:00,
2013-06-02 23:21:00,58.4,53.3,29.87,WNW,295,2.0,6.0,83,0.00,,,0.64,Wunderground v.1.15,2013-06-03 03:21:00,
2013-06-02 23:23:00,58.3,53.2,29.88,West,268,2.0,8.0,83,0.00,,,0.64,Wunderground v.1.15,2013-06-03 03:23:00,
2013-06-02 23:25:00,58.2,53.1,29.88,NW,314,2.0,8.0,83,0.00,,,0.64,Wunderground v.1.15,2013-06-03 03:25:00,
2013-06-02 23:27:00,58.2,53.1,29.88,West,281,2.0,8.0,83,0.00,,,0.64,Wunderground v.1.15,2013-06-03 03:27:00,
2013-06-02 23:30:00,58.1,53.0,29.88,West,281,2.0,2.0,83,0.00,,,0.64,Wunderground v.1.15,2013-06-03 03:30:00,
2013-06-02 23:31:00,58.0,52.9,29.88,WNW,284,2.0,5.0,83,0.00,,,0.64,Wunderground v.1.15,2013-06-03 03:31:00,
2013-06-02 23:33:00,57.9,52.4,29.88,West,274,2.0,6.0,82,0.00,,,0.64,Wunderground v.1.15,2013-06-03 03:33:00,
2013-06-02 23:35:00,57.8,52.3,29.88,West,259,2.0,6.0,82,0.00,,,0.64,Wunderground v.1.15,2013-06-03 03:35:00,
2013-06-02 23:36:00,57.8,52.3,29.88,South,186,2.0,6.0,82,0.00,,,0.64,Wunderground v.1.15,2013-06-03 03:36:00,
2013-06-02 23:38:00,57.7,51.9,29.88,West,266,2.0,6.0,81,0.00,,,0.64,Wunderground v.1.15,2013-06-03 03:38:00,
2013-06-02 23:39:00,57.6,51.8,29.88,WNW,287,2.0,6.0,81,0.00,,,0.64,Wunderground v.1.15,2013-06-03 03:39:00,
2013-06-02 23:41:00,57.5,51.4,29.88,WSW,256,2.0,6.0,80,0.00,,,0.64,Wunderground v.1.15,2013-06-03 03:41:00,
2013-06-02 23:43:00,57.4,51.3,29.88,WSW,248,2.0,6.0,80,0.00,,,0.64,Wunderground v.1.15,2013-06-03 03:43:00,
2013-06-02 23:44:00,57.3,51.2,29.89,WNW,285,2.0,6.0,80,0.00,,,0.64,Wunderground v.1.15,2013-06-03 03:44:00,
2013-06-02 23:45:00,57.3,51.2,29.88,West,271,2.0,6.0,80,0.00,,,0.64,Wunderground v.1.15,2013-06-03 03:45:00,
2013-06-02 23:48:00,57.2,51.1,29.88,SW,236,2.0,6.0,80,0.00,,,0.64,Wunderground v.1.15,2013-06-03 03:48:00,
2013-06-02 23:49:00,57.2,51.1,29.88,NW,311,2.0,6.0,80,0.00,,,0.64,Wunderground v.1.15,2013-06-03 03:49:00,
2013-06-02 23:50:00,57.1,51.0,29.89,NW,304,1.0,1.0,80,0.00,,,0.64,Wunderground v.1.15,2013-06-03 03:50:00,
2013-06-02 23:51:00,57.1,51.0,29.89,NW,304,1.0,6.0,80,0.00,,,0.64,Wunderground v.1.15,2013-06-03 03:51:00,
2013-06-02 23:52:00,57.1,51.0,29.89,SSW,195,1.0,6.0,80,0.00,,,0.64,Wunderground v.1.15,2013-06-03 03:52:00,
2013-06-02 23:54:00,57.0,50.9,29.89,West,259,1.0,6.0,80,0.00,,,0.64,Wunderground v.1.15,2013-06-03 03:54:00,
2013-06-02 23:56:00,57.0,50.9,29.89,WNW,302,1.0,6.0,80,0.00,,,0.64,Wunderground v.1.15,2013-06-03 03:56:00,
2013-06-02 23:57:00,56.9,50.8,29.89,WSW,255,1.0,6.0,80,0.00,,,0.64,Wunderground v.1.15,2013-06-03 03:57:00,
2013-06-02 23:59:00,56.9,50.5,29.89,WNW,294,1.0,6.0,79,0.00,,,0.64,Wunderground v.1.15,2013-06-03 03:59:00,